Wetterdaten: Samstag, 21.02.2015
Datum Zeit Temp. Aussen +5cm Feuchte Auss Luftdruck Regen Sonnenschein Regendauer Solar Windben
21.02.2015 00:00 6,1 C 3,9 C 92 % 997,9 hPa 0,0 l/m 0 min 2 min 0 W/m 25,1 km/h (4 Bft)
21.02.2015 00:02 6,1 C 3,9 C 92 % 997,8 hPa 0,0 l/m 0 min 2 min 0 W/m 27,2 km/h (4 Bft)
21.02.2015 00:06 6,0 C 3,9 C 93 % 997,8 hPa 0,0 l/m 0 min 2 min 0 W/m 25,1 km/h (4 Bft)
21.02.2015 00:08 6,1 C 3,9 C 93 % 997,7 hPa 0,0 l/m 0 min 2 min 0 W/m 16,7 km/h (3 Bft)
21.02.2015 00:10 6,0 C 3,9 C 93 % 997,7 hPa 0,0 l/m 0 min 2 min 0 W/m 18,8 km/h (3 Bft)
21.02.2015 00:12 6,1 C 3,9 C 93 % 997,7 hPa 0,2 l/m 0 min 2 min 0 W/m 31,4 km/h (5 Bft)
21.02.2015 00:14 6,0 C 3,9 C 93 % 997,6 hPa 0,0 l/m 0 min 2 min 0 W/m 25,1 km/h (4 Bft)
21.02.2015 00:16 6,0 C 3,9 C 93 % 997,6 hPa 0,0 l/m 0 min 2 min 0 W/m 20,9 km/h (4 Bft)
21.02.2015 00:18 6,0 C 3,9 C 93 % 997,5 hPa 0,0 l/m 0 min 2 min 0 W/m 18,8 km/h (3 Bft)
21.02.2015 00:20 6,0 C 3,9 C 93 % 997,5 hPa 0,0 l/m 0 min 2 min 0 W/m 20,9 km/h (4 Bft)
21.02.2015 00:22 6,0 C 3,9 C 93 % 997,5 hPa 0,0 l/m 0 min 2 min 0 W/m 25,1 km/h (4 Bft)
21.02.2015 00:24 6,0 C 3,9 C 93 % 997,4 hPa 0,0 l/m 0 min 2 min 0 W/m 16,7 km/h (3 Bft)
21.02.2015 00:26 6,0 C 3,9 C 93 % 997,3 hPa 0,0 l/m 0 min 2 min 0 W/m 29,3 km/h (5 Bft)
21.02.2015 00:28 6,0 C 3,9 C 93 % 997,3 hPa 0,0 l/m 0 min 2 min 0 W/m 25,1 km/h (4 Bft)
21.02.2015 00:30 6,0 C 3,9 C 93 % 997,3 hPa 0,0 l/m 0 min 2 min 0 W/m 31,4 km/h (5 Bft)
21.02.2015 00:32 6,0 C 3,9 C 93 % 997,2 hPa 0,0 l/m 0 min 0 min 0 W/m 23,0 km/h (4 Bft)
21.02.2015 00:34 6,0 C 3,9 C 93 % 997,1 hPa 0,0 l/m 0 min 2 min 0 W/m 25,1 km/h (4 Bft)
21.02.2015 00:36 6,0 C 3,9 C 93 % 997,2 hPa 0,0 l/m 0 min 2 min 0 W/m 20,9 km/h (4 Bft)
21.02.2015 00:38 5,9 C 3,9 C 93 % 997,1 hPa 0,0 l/m 0 min 2 min 0 W/m 16,7 km/h (3 Bft)
21.02.2015 00:40 6,0 C 3,9 C 93 % 997,1 hPa 0,0 l/m 0 min 0 min 0 W/m 27,2 km/h (4 Bft)
21.02.2015 00:42 6,0 C 3,9 C 93 % 997,0 hPa 0,0 l/m 0 min 0 min 0 W/m 14,6 km/h (3 Bft)
21.02.2015 00:44 6,0 C 3,9 C 93 % 997,0 hPa 0,0 l/m 0 min 0 min 0 W/m 20,9 km/h (4 Bft)
21.02.2015 00:46 6,0 C 3,9 C 93 % 997,0 hPa 0,0 l/m 0 min 0 min 0 W/m 14,6 km/h (3 Bft)
21.02.2015 00:48 5,9 C 3,9 C 93 % 997,0 hPa 0,0 l/m 0 min 2 min 0 W/m 14,6 km/h (3 Bft)
21.02.2015 00:50 5,9 C 3,9 C 93 % 996,9 hPa 0,0 l/m 0 min 2 min 0 W/m 18,8 km/h (3 Bft)
21.02.2015 00:52 5,9 C 3,9 C 93 % 996,9 hPa 0,0 l/m 0 min 0 min 0 W/m 20,9 km/h (4 Bft)
21.02.2015 00:54 5,9 C 3,9 C 93 % 997,0 hPa 0,0 l/m 0 min 2 min 0 W/m 23,0 km/h (4 Bft)
21.02.2015 00:56 5,9 C 3,9 C 93 % 996,9 hPa 0,0 l/m 0 min 0 min 0 W/m 14,6 km/h (3 Bft)
21.02.2015 00:58 5,9 C 3,9 C 93 % 996,8 hPa 0,0 l/m 0 min 2 min 0 W/m 14,6 km/h (3 Bft)
21.02.2015 01:00 5,9 C 3,9 C 93 % 996,8 hPa 0,0 l/m 0 min 2 min 0 W/m 20,9 km/h (4 Bft)
21.02.2015 01:02 5,9 C 3,9 C 93 % 996,7 hPa 0,0 l/m 0 min 2 min 0 W/m 18,8 km/h (3 Bft)
21.02.2015 01:04 5,9 C 3,9 C 93 % 996,6 hPa 0,0 l/m 0 min 2 min 0 W/m 8,4 km/h (2 Bft)
21.02.2015 01:06 5,9 C 3,9 C 93 % 996,5 hPa 0,0 l/m 0 min 2 min 0 W/m 10,5 km/h (2 Bft)
21.02.2015 01:08 5,9 C 3,9 C 93 % 996,5 hPa 0,0 l/m 0 min 2 min 0 W/m 20,9 km/h (4 Bft)
21.02.2015 01:10 5,9 C 3,9 C 93 % 996,5 hPa 0,0 l/m 0 min 2 min 0 W/m 16,7 km/h (3 Bft)
21.02.2015 01:12 5,9 C 3,9 C 93 % 996,4 hPa 0,0 l/m 0 min 2 min 0 W/m 16,7 km/h (3 Bft)
21.02.2015 01:14 5,9 C 3,9 C 93 % 996,5 hPa 0,0 l/m 0 min 2 min 0 W/m 14,6 km/h (3 Bft)
21.02.2015 01:16 5,9 C 3,9 C 93 % 996,4 hPa 0,2 l/m 0 min 2 min 0 W/m 18,8 km/h (3 Bft)
21.02.2015 01:18 5,9 C 3,9 C 93 % 996,3 hPa 0,0 l/m 0 min 2 min 0 W/m 23,0 km/h (4 Bft)
21.02.2015 01:20 5,9 C 3,9 C 93 % 996,3 hPa 0,0 l/m 0 min 2 min 0 W/m 18,8 km/h (3 Bft)
21.02.2015 01:22 5,9 C 3,9 C 93 % 996,3 hPa 0,0 l/m 0 min 2 min 0 W/m 18,8 km/h (3 Bft)
21.02.2015 01:24 5,9 C 3,9 C 93 % 996,3 hPa 0,0 l/m 0 min 2 min 0 W/m 25,1 km/h (4 Bft)
21.02.2015 01:26 5,9 C 3,9 C 93 % 996,3 hPa 0,0 l/m 0 min 2 min 0 W/m 14,6 km/h (3 Bft)
21.02.2015 01:28 5,9 C 3,9 C 93 % 996,2 hPa 0,0 l/m 0 min 2 min 0 W/m 18,8 km/h (3 Bft)
21.02.2015 01:30 5,9 C 3,9 C 93 % 996,2 hPa 0,0 l/m 0 min 2 min 0 W/m 18,8 km/h (3 Bft)
21.02.2015 01:32 5,9 C 3,9 C 93 % 996,2 hPa 0,0 l/m 0 min 2 min 0 W/m 27,2 km/h (4 Bft)
21.02.2015 01:34 5,9 C 3,9 C 93 % 996,1 hPa 0,0 l/m 0 min 2 min 0 W/m 18,8 km/h (3 Bft)
21.02.2015 01:36 5,9 C 3,9 C 93 % 996,1 hPa 0,0 l/m 0 min 2 min 0 W/m 16,7 km/h (3 Bft)
21.02.2015 01:38 5,9 C 3,9 C 93 % 996,1 hPa 0,0 l/m 0 min 2 min 0 W/m 18,8 km/h (3 Bft)
21.02.2015 01:40 5,9 C 3,9 C 93 % 996,1 hPa 0,2 l/m 0 min 2 min 0 W/m 23,0 km/h (4 Bft)
21.02.2015 01:42 5,9 C 3,9 C 93 % 996,0 hPa 0,0 l/m 0 min 2 min 0 W/m 14,6 km/h (3 Bft)
21.02.2015 01:44 5,9 C 3,9 C 93 % 996,0 hPa 0,0 l/m 0 min 2 min 0 W/m 16,7 km/h (3 Bft)
21.02.2015 01:46 5,9 C 3,9 C 93 % 996,0 hPa 0,0 l/m 0 min 2 min 0 W/m 14,6 km/h (3 Bft)
21.02.2015 01:48 5,9 C 3,9 C 93 % 995,9 hPa 0,2 l/m 0 min 2 min 0 W/m 14,6 km/h (3 Bft)
21.02.2015 01:50 5,9 C 3,9 C 93 % 995,9 hPa 0,0 l/m 0 min 2 min 0 W/m 16,7 km/h (3 Bft)
21.02.2015 01:52 5,9 C 3,9 C 93 % 995,9 hPa 0,0 l/m 0 min 2 min 0 W/m 14,6 km/h (3 Bft)
21.02.2015 01:54 5,9 C 3,9 C 93 % 995,9 hPa 0,2 l/m 0 min 2 min 0 W/m 20,9 km/h (4 Bft)
21.02.2015 01:56 5,9 C 3,9 C 93 % 995,8 hPa 0,0 l/m 0 min 2 min 0 W/m 23,0 km/h (4 Bft)
21.02.2015 01:58 5,9 C 3,9 C 93 % 995,8 hPa 0,0 l/m 0 min 2 min 0 W/m 20,9 km/h (4 Bft)
21.02.2015 02:00 5,9 C 3,9 C 93 % 995,8 hPa 0,0 l/m 0 min 2 min 0 W/m 14,6 km/h (3 Bft)
21.02.2015 02:02 5,9 C 3,9 C 93 % 995,7 hPa 0,2 l/m 0 min 2 min 0 W/m 18,8 km/h (3 Bft)
21.02.2015 02:04 5,9 C 3,9 C 93 % 995,7 hPa 0,0 l/m 0 min 2 min 0 W/m 18,8 km/h (3 Bft)
21.02.2015 02:06 5,9 C 3,9 C 93 % 995,6 hPa 0,0 l/m 0 min 2 min 0 W/m 20,9 km/h (4 Bft)
21.02.2015 02:08 5,9 C 3,9 C 93 % 995,6 hPa 0,0 l/m 0 min 2 min 0 W/m 20,9 km/h (4 Bft)
21.02.2015 02:10 5,9 C 3,9 C 93 % 995,5 hPa 0,2 l/m 0 min 2 min 0 W/m 16,7 km/h (3 Bft)
21.02.2015 02:12 5,9 C 3,9 C 93 % 995,5 hPa 0,0 l/m 0 min 2 min 0 W/m 18,8 km/h (3 Bft)
21.02.2015 02:14 5,9 C 3,9 C 93 % 995,5 hPa 0,0 l/m 0 min 2 min 0 W/m 23,0 km/h (4 Bft)
21.02.2015 02:16 5,9 C 3,9 C 93 % 995,5 hPa 0,0 l/m 0 min 2 min 0 W/m 20,9 km/h (4 Bft)
21.02.2015 02:18 5,9 C 3,9 C 93 % 995,4 hPa 0,0 l/m 0 min 2 min 0 W/m 23,0 km/h (4 Bft)
21.02.2015 02:20 5,9 C 3,9 C 93 % 995,4 hPa 0,0 l/m 0 min 2 min 0 W/m 20,9 km/h (4 Bft)
21.02.2015 02:22 5,9 C 3,9 C 94 % 995,3 hPa 0,2 l/m 0 min 2 min 0 W/m 20,9 km/h (4 Bft)
21.02.2015 02:24 5,8 C 3,9 C 94 % 995,3 hPa 0,0 l/m 0 min 2 min 0 W/m 20,9 km/h (4 Bft)
21.02.2015 02:26 5,8 C 3,9 C 94 % 995,3 hPa 0,0 l/m 0 min 2 min 0 W/m 16,7 km/h (3 Bft)
21.02.2015 02:28 5,8 C 3,9 C 94 % 995,3 hPa 0,0 l/m 0 min 2 min 0 W/m 18,8 km/h (3 Bft)
21.02.2015 02:30 5,8 C 3,9 C 94 % 995,3 hPa 0,0 l/m 0 min 2 min 0 W/m 23,0 km/h (4 Bft)
21.02.2015 02:32 5,8 C 3,9 C 94 % 995,3 hPa 0,2 l/m 0 min 2 min 0 W/m 20,9 km/h (4 Bft)
21.02.2015 02:34 5,8 C 3,9 C 94 % 995,2 hPa 0,0 l/m 0 min 2 min 0 W/m 25,1 km/h (4 Bft)
21.02.2015 02:36 5,8 C 3,9 C 94 % 995,2 hPa 0,0 l/m 0 min 2 min 0 W/m 20,9 km/h (4 Bft)
21.02.2015 02:38 5,8 C 3,9 C 94 % 995,1 hPa 0,0 l/m 0 min 2 min 0 W/m 18,8 km/h (3 Bft)
21.02.2015 02:40 5,8 C 3,9 C 94 % 995,1 hPa 0,0 l/m 0 min 2 min 0 W/m 16,7 km/h (3 Bft)
21.02.2015 02:42 5,8 C 3,9 C 94 % 995,0 hPa 0,0 l/m 0 min 2 min 0 W/m 16,7 km/h (3 Bft)
21.02.2015 02:44 5,8 C 3,9 C 94 % 994,9 hPa 0,0 l/m 0 min 2 min 0 W/m 25,1 km/h (4 Bft)
21.02.2015 02:46 5,8 C 3,9 C 94 % 994,9 hPa 0,0 l/m 0 min 2 min 0 W/m 23,0 km/h (4 Bft)
21.02.2015 02:48 5,8 C 3,9 C 94 % 994,8 hPa 0,0 l/m 0 min 2 min 0 W/m 25,1 km/h (4 Bft)
21.02.2015 02:50 5,8 C 3,9 C 94 % 994,8 hPa 0,0 l/m 0 min 2 min 0 W/m 20,9 km/h (4 Bft)
21.02.2015 02:52 5,8 C 3,9 C 94 % 994,8 hPa 0,0 l/m 0 min 2 min 0 W/m 18,8 km/h (3 Bft)
21.02.2015 02:54 5,7 C 3,9 C 94 % 994,8 hPa 0,0 l/m 0 min 2 min 0 W/m 20,9 km/h (4 Bft)
21.02.2015 02:56 5,7 C 3,9 C 94 % 994,7 hPa 0,0 l/m 0 min 2 min 0 W/m 23,0 km/h (4 Bft)
21.02.2015 02:58 5,7 C 3,9 C 94 % 994,6 hPa 0,0 l/m 0 min 2 min 0 W/m 27,2 km/h (4 Bft)
21.02.2015 03:00 5,7 C 3,9 C 94 % 994,5 hPa 0,0 l/m 0 min 2 min 0 W/m 23,0 km/h (4 Bft)
21.02.2015 03:02 5,7 C 3,9 C 94 % 994,6 hPa 0,0 l/m 0 min 2 min 0 W/m 23,0 km/h (4 Bft)
21.02.2015 03:04 5,7 C 3,9 C 94 % 994,6 hPa 0,0 l/m 0 min 0 min 0 W/m 23,0 km/h (4 Bft)
21.02.2015 03:06 5,7 C 3,9 C 94 % 994,4 hPa 0,2 l/m 0 min 2 min 0 W/m 14,6 km/h (3 Bft)
21.02.2015 03:08 5,7 C 3,9 C 94 % 994,4 hPa 0,0 l/m 0 min 2 min 0 W/m 25,1 km/h (4 Bft)
21.02.2015 03:10 5,7 C 3,9 C 94 % 994,3 hPa 0,0 l/m 0 min 0 min 0 W/m 25,1 km/h (4 Bft)
21.02.2015 03:12 5,7 C 3,9 C 94 % 994,3 hPa 0,0 l/m 0 min 2 min 0 W/m 10,5 km/h (2 Bft)
21.02.2015 03:14 5,7 C 3,9 C 94 % 994,3 hPa 0,0 l/m 0 min 2 min 0 W/m 25,1 km/h (4 Bft)
21.02.2015 03:16 5,7 C 3,9 C 94 % 994,2 hPa 0,0 l/m 0 min 2 min 0 W/m 16,7 km/h (3 Bft)
21.02.2015 03:18 5,7 C 3,9 C 94 % 994,2 hPa 0,0 l/m 0 min 0 min 0 W/m 23,0 km/h (4 Bft)
21.02.2015 03:20 5,7 C 3,9 C 94 % 994,2 hPa 0,0 l/m 0 min 0 min 0 W/m 20,9 km/h (4 Bft)
21.02.2015 03:22 5,7 C 3,9 C 94 % 994,1 hPa 0,0 l/m 0 min 0 min 0 W/m 18,8 km/h (3 Bft)
21.02.2015 03:24 5,7 C 3,9 C 94 % 994,1 hPa 0,0 l/m 0 min 0 min 0 W/m 16,7 km/h (3 Bft)
21.02.2015 03:26 5,7 C 3,9 C 94 % 994,1 hPa 0,0 l/m 0 min 0 min 0 W/m 14,6 km/h (3 Bft)
21.02.2015 03:28 5,7 C 3,9 C 94 % 994,0 hPa 0,0 l/m 0 min 0 min 0 W/m 16,7 km/h (3 Bft)
21.02.2015 03:30 5,7 C 3,9 C 94 % 994,0 hPa 0,0 l/m 0 min 0 min 0 W/m 18,8 km/h (3 Bft)
21.02.2015 03:32 5,7 C 3,9 C 94 % 993,9 hPa 0,0 l/m 0 min 0 min 0 W/m 27,2 km/h (4 Bft)
21.02.2015 03:34 5,7 C 3,9 C 94 % 993,9 hPa 0,0 l/m 0 min 0 min 0 W/m 31,4 km/h (5 Bft)
21.02.2015 03:36 5,7 C 3,9 C 94 % 993,8 hPa 0,0 l/m 0 min 0 min 0 W/m 20,9 km/h (4 Bft)
21.02.2015 03:38 5,7 C 3,9 C 94 % 993,9 hPa 0,0 l/m 0 min 0 min 0 W/m 23,0 km/h (4 Bft)
21.02.2015 03:40 5,7 C 3,9 C 94 % 993,9 hPa 0,0 l/m 0 min 0 min 0 W/m 18,8 km/h (3 Bft)
21.02.2015 03:42 5,7 C 3,9 C 94 % 993,8 hPa 0,0 l/m 0 min 0 min 0 W/m 16,7 km/h (3 Bft)
21.02.2015 03:44 5,7 C 3,9 C 94 % 993,8 hPa 0,0 l/m 0 min 0 min 0 W/m 25,1 km/h (4 Bft)
21.02.2015 03:46 5,7 C 3,9 C 94 % 993,8 hPa 0,0 l/m 0 min 0 min 0 W/m 23,0 km/h (4 Bft)
21.02.2015 03:48 5,7 C 3,9 C 94 % 993,8 hPa 0,0 l/m 0 min 0 min 0 W/m 31,4 km/h (5 Bft)
21.02.2015 03:50 5,7 C 3,9 C 94 % 993,7 hPa 0,0 l/m 0 min 0 min 0 W/m 18,8 km/h (3 Bft)
21.02.2015 03:52 5,7 C 3,9 C 94 % 993,7 hPa 0,0 l/m 0 min 0 min 0 W/m 29,3 km/h (5 Bft)
21.02.2015 03:54 5,7 C 3,9 C 94 % 993,7 hPa 0,0 l/m 0 min 0 min 0 W/m 23,0 km/h (4 Bft)
21.02.2015 03:56 5,8 C 3,9 C 94 % 993,7 hPa 0,0 l/m 0 min 0 min 0 W/m 20,9 km/h (4 Bft)
21.02.2015 03:58 5,8 C 3,9 C 94 % 993,6 hPa 0,0 l/m 0 min 0 min 0 W/m 23,0 km/h (4 Bft)
21.02.2015 04:00 5,8 C 3,9 C 94 % 993,6 hPa 0,0 l/m 0 min 0 min 0 W/m 18,8 km/h (3 Bft)
21.02.2015 04:02 5,8 C 3,9 C 94 % 993,6 hPa 0,0 l/m 0 min 0 min 0 W/m 12,6 km/h (3 Bft)
21.02.2015 04:04 5,8 C 3,9 C 94 % 993,6 hPa 0,0 l/m 0 min 0 min 0 W/m 20,9 km/h (4 Bft)
21.02.2015 04:06 5,8 C 3,9 C 94 % 993,5 hPa 0,0 l/m 0 min 0 min 0 W/m 18,8 km/h (3 Bft)
21.02.2015 04:08 5,8 C 3,9 C 94 % 993,6 hPa 0,0 l/m 0 min 0 min 0 W/m 25,1 km/h (4 Bft)
21.02.2015 04:10 5,8 C 3,9 C 94 % 993,5 hPa 0,0 l/m 0 min 0 min 0 W/m 23,0 km/h (4 Bft)
21.02.2015 04:12 5,8 C 3,9 C 94 % 993,8 hPa 0,0 l/m 0 min 0 min 0 W/m 27,2 km/h (4 Bft)
21.02.2015 04:14 5,8 C 3,9 C 94 % 993,5 hPa 0,0 l/m 0 min 0 min 0 W/m 18,8 km/h (3 Bft)
21.02.2015 04:16 5,8 C 3,9 C 94 % 993,6 hPa 0,0 l/m 0 min 0 min 0 W/m 14,6 km/h (3 Bft)
21.02.2015 04:18 5,8 C 3,9 C 94 % 993,6 hPa 0,0 l/m 0 min 0 min 0 W/m 25,1 km/h (4 Bft)
21.02.2015 04:20 5,8 C 3,9 C 94 % 993,6 hPa 0,0 l/m 0 min 0 min 0 W/m 25,1 km/h (4 Bft)
21.02.2015 04:22 5,8 C 3,9 C 94 % 993,6 hPa 0,0 l/m 0 min 0 min 0 W/m 20,9 km/h (4 Bft)
21.02.2015 04:24 5,8 C 3,9 C 94 % 993,6 hPa 0,0 l/m 0 min 0 min 0 W/m 23,0 km/h (4 Bft)
21.02.2015 04:26 5,9 C 3,9 C 94 % 993,7 hPa 0,0 l/m 0 min 0 min 0 W/m 18,8 km/h (3 Bft)
21.02.2015 04:28 5,8 C 3,9 C 94 % 993,7 hPa 0,0 l/m 0 min 0 min 0 W/m 37,7 km/h (5 Bft)
21.02.2015 04:30 5,9 C 3,9 C 94 % 993,6 hPa 0,0 l/m 0 min 0 min 0 W/m 25,1 km/h (4 Bft)
21.02.2015 04:32 5,9 C 3,9 C 94 % 993,7 hPa 0,0 l/m 0 min 0 min 0 W/m 37,7 km/h (5 Bft)
21.02.2015 04:34 5,9 C 3,9 C 93 % 993,6 hPa 0,0 l/m 0 min 0 min 0 W/m 18,8 km/h (3 Bft)
21.02.2015 04:36 5,9 C 3,9 C 93 % 993,6 hPa 0,0 l/m 0 min 0 min 0 W/m 33,5 km/h (5 Bft)
21.02.2015 04:38 5,9 C 3,9 C 93 % 993,5 hPa 0,0 l/m 0 min 0 min 0 W/m 29,3 km/h (5 Bft)
21.02.2015 04:40 5,9 C 3,9 C 93 % 993,6 hPa 0,0 l/m 0 min 0 min 0 W/m 31,4 km/h (5 Bft)
21.02.2015 04:42 5,9 C 3,9 C 93 % 993,6 hPa 0,0 l/m 0 min 0 min 0 W/m 31,4 km/h (5 Bft)
21.02.2015 04:44 5,9 C 3,9 C 93 % 993,6 hPa 0,0 l/m 0 min 0 min 0 W/m 39,7 km/h (6 Bft)
21.02.2015 04:46 5,9 C 3,9 C 93 % 993,7 hPa 0,0 l/m 0 min 0 min 0 W/m 33,5 km/h (5 Bft)
21.02.2015 04:48 5,8 C 3,9 C 93 % 993,6 hPa 0,0 l/m 0 min 0 min 0 W/m 37,7 km/h (5 Bft)
21.02.2015 04:50 5,8 C 3,9 C 93 % 993,6 hPa 0,0 l/m 0 min 0 min 0 W/m 29,3 km/h (5 Bft)
21.02.2015 04:52 5,8 C 3,9 C 93 % 993,6 hPa 0,0 l/m 0 min 0 min 0 W/m 31,4 km/h (5 Bft)
21.02.2015 04:54 5,8 C 3,9 C 93 % 993,5 hPa 0,0 l/m 0 min 0 min 0 W/m 35,6 km/h (5 Bft)
21.02.2015 04:56 5,8 C 3,9 C 93 % 993,6 hPa 0,0 l/m 0 min 0 min 0 W/m 27,2 km/h (4 Bft)
21.02.2015 04:58 5,8 C 3,9 C 93 % 993,7 hPa 0,0 l/m 0 min 0 min 0 W/m 31,4 km/h (5 Bft)
21.02.2015 05:00 5,7 C 3,9 C 92 % 993,6 hPa 0,0 l/m 0 min 0 min 0 W/m 35,6 km/h (5 Bft)
21.02.2015 05:02 5,7 C 3,9 C 92 % 993,7 hPa 0,0 l/m 0 min 0 min 0 W/m 29,3 km/h (5 Bft)
21.02.2015 05:04 5,7 C 3,9 C 92 % 993,7 hPa 0,0 l/m 0 min 0 min 0 W/m 37,7 km/h (5 Bft)
21.02.2015 05:06 5,7 C 3,9 C 92 % 993,7 hPa 0,0 l/m 0 min 0 min 0 W/m 31,4 km/h (5 Bft)
21.02.2015 05:08 5,6 C 3,3 C 92 % 993,7 hPa 0,0 l/m 0 min 0 min 0 W/m 35,6 km/h (5 Bft)
21.02.2015 05:10 5,6 C 3,3 C 92 % 993,7 hPa 0,0 l/m 0 min 0 min 0 W/m 48,1 km/h (6 Bft)
21.02.2015 05:12 5,5 C 3,3 C 92 % 993,9 hPa 0,0 l/m 0 min 0 min 0 W/m 29,3 km/h (5 Bft)
21.02.2015 05:14 5,4 C 3,3 C 92 % 993,9 hPa 0,0 l/m 0 min 2 min 0 W/m 35,6 km/h (5 Bft)
21.02.2015 05:16 5,3 C 3,3 C 92 % 994,1 hPa 0,0 l/m 0 min 2 min 0 W/m 46,0 km/h (6 Bft)
21.02.2015 05:18 5,2 C 2,8 C 92 % 994,1 hPa 0,0 l/m 0 min 2 min 0 W/m 37,7 km/h (5 Bft)
21.02.2015 05:20 5,1 C 2,8 C 92 % 994,2 hPa 0,2 l/m 0 min 2 min 0 W/m 25,1 km/h (4 Bft)
21.02.2015 05:22 4,9 C 2,8 C 92 % 994,3 hPa 0,0 l/m 0 min 2 min 0 W/m 35,6 km/h (5 Bft)
21.02.2015 05:24 4,8 C 2,8 C 92 % 994,3 hPa 0,0 l/m 0 min 2 min 0 W/m 33,5 km/h (5 Bft)
21.02.2015 05:26 4,7 C 2,8 C 92 % 994,4 hPa 0,0 l/m 0 min 2 min 0 W/m 27,2 km/h (4 Bft)
21.02.2015 05:28 4,6 C 2,2 C 92 % 994,4 hPa 0,0 l/m 0 min 2 min 0 W/m 31,4 km/h (5 Bft)
21.02.2015 05:30 4,4 C 2,2 C 92 % 994,6 hPa 0,0 l/m 0 min 2 min 0 W/m 25,1 km/h (4 Bft)
21.02.2015 05:32 4,3 C 2,2 C 92 % 994,6 hPa 0,0 l/m 0 min 2 min 0 W/m 37,7 km/h (5 Bft)
21.02.2015 05:34 4,2 C 2,2 C 92 % 994,6 hPa 0,0 l/m 0 min 2 min 0 W/m 27,2 km/h (4 Bft)
21.02.2015 05:36 4,2 C 2,2 C 92 % 994,7 hPa 0,0 l/m 0 min 2 min 0 W/m 25,1 km/h (4 Bft)
21.02.2015 05:38 4,0 C 2,2 C 92 % 994,7 hPa 0,0 l/m 0 min 2 min 0 W/m 18,8 km/h (3 Bft)
21.02.2015 05:40 3,9 C 2,2 C 92 % 994,8 hPa 0,0 l/m 0 min 2 min 0 W/m 16,7 km/h (3 Bft)
21.02.2015 05:42 3,8 C 2,2 C 92 % 994,9 hPa 0,2 l/m 0 min 2 min 0 W/m 20,9 km/h (4 Bft)
21.02.2015 05:44 3,8 C 2,2 C 92 % 995,0 hPa 0,0 l/m 0 min 2 min 0 W/m 18,8 km/h (3 Bft)
21.02.2015 05:46 3,7 C 2,2 C 93 % 995,0 hPa 0,0 l/m 0 min 2 min 0 W/m 20,9 km/h (4 Bft)
21.02.2015 05:48 3,7 C 2,2 C 93 % 995,1 hPa 0,0 l/m 0 min 2 min 0 W/m 23,0 km/h (4 Bft)
21.02.2015 05:50 3,6 C 1,7 C 93 % 995,1 hPa 0,0 l/m 0 min 2 min 0 W/m 29,3 km/h (5 Bft)
21.02.2015 05:52 3,6 C 1,7 C 93 % 995,2 hPa 0,0 l/m 0 min 2 min 0 W/m 23,0 km/h (4 Bft)
21.02.2015 05:54 3,5 C 1,7 C 93 % 995,3 hPa 0,0 l/m 0 min 2 min 0 W/m 20,9 km/h (4 Bft)
21.02.2015 05:56 3,4 C 1,7 C 93 % 995,3 hPa 0,0 l/m 0 min 2 min 0 W/m 20,9 km/h (4 Bft)
21.02.2015 05:58 3,4 C 1,7 C 93 % 995,3 hPa 0,0 l/m 0 min 2 min 0 W/m 23,0 km/h (4 Bft)
21.02.2015 06:00 3,3 C 1,7 C 93 % 995,3 hPa 0,0 l/m 0 min 2 min 0 W/m 27,2 km/h (4 Bft)
21.02.2015 06:02 3,3 C 1,7 C 93 % 995,3 hPa 0,0 l/m 0 min 2 min 0 W/m 27,2 km/h (4 Bft)
21.02.2015 06:06 3,3 C 1,7 C 93 % 995,4 hPa 0,0 l/m 0 min 2 min 0 W/m 27,2 km/h (4 Bft)
21.02.2015 06:08 3,2 C 1,7 C 93 % 995,3 hPa 0,0 l/m 0 min 2 min 0 W/m 25,1 km/h (4 Bft)
21.02.2015 06:10 3,2 C 1,7 C 94 % 995,4 hPa 0,0 l/m 0 min 2 min 0 W/m 35,6 km/h (5 Bft)
21.02.2015 06:12 3,2 C 1,7 C 93 % 995,4 hPa 0,0 l/m 0 min 2 min 0 W/m 25,1 km/h (4 Bft)
21.02.2015 06:14 3,2 C 1,7 C 94 % 995,4 hPa 0,0 l/m 0 min 2 min 0 W/m 23,0 km/h (4 Bft)
21.02.2015 06:16 3,1 C 1,7 C 94 % 995,5 hPa 0,0 l/m 0 min 2 min 0 W/m 29,3 km/h (5 Bft)
21.02.2015 06:18 3,1 C 1,7 C 94 % 995,5 hPa 0,0 l/m 0 min 2 min 0 W/m 29,3 km/h (5 Bft)
21.02.2015 06:20 3,1 C 1,7 C 94 % 995,6 hPa 0,0 l/m 0 min 2 min 0 W/m 27,2 km/h (4 Bft)
21.02.2015 06:22 3,1 C 1,7 C 94 % 995,6 hPa 0,0 l/m 0 min 2 min 0 W/m 20,9 km/h (4 Bft)
21.02.2015 06:24 3,0 C 1,7 C 94 % 995,7 hPa 0,0 l/m 0 min 2 min 0 W/m 16,7 km/h (3 Bft)
21.02.2015 06:26 3,0 C 1,7 C 94 % 995,7 hPa 0,2 l/m 0 min 2 min 0 W/m 20,9 km/h (4 Bft)
21.02.2015 06:28 3,0 C 1,7 C 94 % 995,8 hPa 0,0 l/m 0 min 2 min 0 W/m 23,0 km/h (4 Bft)
21.02.2015 06:30 3,0 C 1,7 C 94 % 995,8 hPa 0,0 l/m 0 min 2 min 0 W/m 27,2 km/h (4 Bft)
21.02.2015 06:32 3,0 C 1,7 C 94 % 995,8 hPa 0,0 l/m 0 min 2 min 0 W/m 20,9 km/h (4 Bft)
21.02.2015 06:34 2,9 C 1,7 C 94 % 995,9 hPa 0,0 l/m 0 min 2 min 0 W/m 14,6 km/h (3 Bft)
21.02.2015 06:36 2,9 C 1,7 C 94 % 995,9 hPa 0,0 l/m 0 min 2 min 0 W/m 25,1 km/h (4 Bft)
21.02.2015 06:38 2,9 C 1,7 C 94 % 996,0 hPa 0,0 l/m 0 min 2 min 0 W/m 18,8 km/h (3 Bft)
21.02.2015 06:40 2,9 C 1,7 C 94 % 996,0 hPa 0,0 l/m 0 min 0 min 0 W/m 20,9 km/h (4 Bft)
21.02.2015 06:42 2,9 C 1,7 C 94 % 996,1 hPa 0,0 l/m 0 min 0 min 0 W/m 23,0 km/h (4 Bft)
21.02.2015 06:44 2,9 C 1,7 C 94 % 996,1 hPa 0,0 l/m 0 min 0 min 0 W/m 18,8 km/h (3 Bft)
21.02.2015 06:46 2,9 C 1,7 C 94 % 996,1 hPa 0,0 l/m 0 min 0 min 0 W/m 20,9 km/h (4 Bft)
21.02.2015 06:48 2,9 C 1,7 C 94 % 996,1 hPa 0,0 l/m 0 min 0 min 0 W/m 14,6 km/h (3 Bft)
21.02.2015 06:50 2,9 C 1,7 C 95 % 996,1 hPa 0,0 l/m 0 min 0 min 0 W/m 18,8 km/h (3 Bft)
21.02.2015 06:52 2,8 C 1,7 C 95 % 996,1 hPa 0,0 l/m 0 min 0 min 0 W/m 23,0 km/h (4 Bft)
21.02.2015 06:54 2,8 C 1,7 C 94 % 996,0 hPa 0,0 l/m 0 min 0 min 0 W/m 20,9 km/h (4 Bft)
21.02.2015 06:56 2,8 C 1,7 C 94 % 996,0 hPa 0,0 l/m 0 min 0 min 0 W/m 12,6 km/h (3 Bft)
21.02.2015 06:58 2,8 C 1,7 C 94 % 996,1 hPa 0,0 l/m 0 min 0 min 0 W/m 14,6 km/h (3 Bft)
21.02.2015 07:00 2,8 C 1,7 C 94 % 996,0 hPa 0,0 l/m 0 min 0 min 0 W/m 16,7 km/h (3 Bft)
21.02.2015 07:02 2,8 C 1,1 C 95 % 996,0 hPa 0,0 l/m 0 min 0 min 0 W/m 12,6 km/h (3 Bft)
21.02.2015 07:04 2,8 C 1,1 C 95 % 996,0 hPa 0,0 l/m 0 min 0 min 0 W/m 16,7 km/h (3 Bft)
21.02.2015 07:06 2,8 C 1,1 C 95 % 996,1 hPa 0,0 l/m 0 min 0 min 0 W/m 12,6 km/h (3 Bft)
21.02.2015 07:08 2,7 C 1,1 C 95 % 996,1 hPa 0,0 l/m 0 min 0 min 0 W/m 14,6 km/h (3 Bft)
21.02.2015 07:10 2,7 C 1,1 C 95 % 996,1 hPa 0,0 l/m 0 min 0 min 0 W/m 14,6 km/h (3 Bft)
21.02.2015 07:12 2,7 C 1,1 C 95 % 996,2 hPa 0,0 l/m 0 min 0 min 0 W/m 12,6 km/h (3 Bft)
21.02.2015 07:14 2,7 C 1,1 C 95 % 996,2 hPa 0,0 l/m 0 min 0 min 0 W/m 14,6 km/h (3 Bft)
21.02.2015 07:16 2,7 C 1,1 C 95 % 996,2 hPa 0,0 l/m 0 min 0 min 0 W/m 18,8 km/h (3 Bft)
21.02.2015 07:18 2,7 C 1,1 C 95 % 996,2 hPa 0,0 l/m 0 min 0 min 0 W/m 14,6 km/h (3 Bft)
21.02.2015 07:20 2,6 C 1,1 C 95 % 996,2 hPa 0,0 l/m 0 min 0 min 0 W/m 14,6 km/h (3 Bft)
21.02.2015 07:22 2,6 C 1,1 C 95 % 996,2 hPa 0,0 l/m 0 min 0 min 0 W/m 16,7 km/h (3 Bft)
21.02.2015 07:24 2,6 C 1,1 C 95 % 996,2 hPa 0,0 l/m 0 min 0 min 0 W/m 8,4 km/h (2 Bft)
21.02.2015 07:26 2,6 C 1,1 C 95 % 996,3 hPa 0,0 l/m 0 min 0 min 0 W/m 10,5 km/h (2 Bft)
21.02.2015 07:28 2,5 C 1,1 C 95 % 996,3 hPa 0,0 l/m 0 min 0 min 0 W/m 12,6 km/h (3 Bft)
21.02.2015 07:30 2,5 C 1,1 C 95 % 996,3 hPa 0,0 l/m 0 min 0 min 0 W/m 10,5 km/h (2 Bft)
21.02.2015 07:32 2,5 C 1,1 C 95 % 996,3 hPa 0,0 l/m 0 min 0 min 0 W/m 12,6 km/h (3 Bft)
21.02.2015 07:34 2,4 C 1,1 C 95 % 996,3 hPa 0,0 l/m 0 min 0 min 0 W/m 12,6 km/h (3 Bft)
21.02.2015 07:36 2,4 C 1,1 C 95 % 996,4 hPa 0,0 l/m 0 min 0 min 0 W/m 18,8 km/h (3 Bft)
21.02.2015 07:38 2,4 C 1,1 C 95 % 996,4 hPa 0,0 l/m 0 min 0 min 0 W/m 10,5 km/h (2 Bft)
21.02.2015 07:40 2,4 C 1,1 C 95 % 996,4 hPa 0,0 l/m 0 min 0 min 0 W/m 18,8 km/h (3 Bft)
21.02.2015 07:42 2,4 C 1,1 C 95 % 996,4 hPa 0,0 l/m 0 min 0 min 1 W/m 12,6 km/h (3 Bft)
21.02.2015 07:44 2,4 C 1,1 C 95 % 996,4 hPa 0,0 l/m 0 min 0 min 5 W/m 14,6 km/h (3 Bft)
21.02.2015 07:46 2,4 C 1,1 C 95 % 996,4 hPa 0,0 l/m 0 min 0 min 5 W/m 18,8 km/h (3 Bft)
21.02.2015 07:48 2,4 C 1,1 C 95 % 996,4 hPa 0,0 l/m 0 min 0 min 5 W/m 12,6 km/h (3 Bft)
21.02.2015 07:50 2,4 C 1,7 C 95 % 996,5 hPa 0,0 l/m 0 min 0 min 5 W/m 20,9 km/h (4 Bft)
21.02.2015 07:52 2,4 C 1,7 C 95 % 996,5 hPa 0,0 l/m 0 min 0 min 5 W/m 12,6 km/h (3 Bft)
21.02.2015 07:54 2,4 C 1,7 C 95 % 996,5 hPa 0,0 l/m 0 min 0 min 5 W/m 16,7 km/h (3 Bft)
21.02.2015 07:56 2,5 C 1,7 C 95 % 996,5 hPa 0,0 l/m 0 min 0 min 5 W/m 16,7 km/h (3 Bft)
21.02.2015 07:58 2,5 C 1,7 C 95 % 996,5 hPa 0,0 l/m 0 min 0 min 5 W/m 16,7 km/h (3 Bft)
21.02.2015 08:00 2,5 C 1,7 C 95 % 996,5 hPa 0,0 l/m 0 min 0 min 5 W/m 12,6 km/h (3 Bft)
21.02.2015 08:02 2,5 C 1,7 C 95 % 996,6 hPa 0,0 l/m 0 min 0 min 7 W/m 16,7 km/h (3 Bft)
21.02.2015 08:04 2,5 C 1,7 C 95 % 996,6 hPa 0,0 l/m 0 min 0 min 7 W/m 20,9 km/h (4 Bft)
21.02.2015 08:06 2,6 C 1,7 C 95 % 996,7 hPa 0,0 l/m 0 min 0 min 7 W/m 18,8 km/h (3 Bft)
21.02.2015 08:07 2,6 C 1,7 C 95 % 996,6 hPa 0,0 l/m 0 min 0 min 9 W/m 14,6 km/h (3 Bft)
21.02.2015 08:10 2,6 C 1,7 C 95 % 996,7 hPa 0,0 l/m 0 min 0 min 10 W/m 20,9 km/h (4 Bft)
21.02.2015 08:12 2,6 C 1,7 C 95 % 996,7 hPa 0,0 l/m 0 min 0 min 11 W/m 10,5 km/h (2 Bft)
21.02.2015 08:14 2,6 C 1,7 C 95 % 996,7 hPa 0,0 l/m 0 min 0 min 14 W/m 14,6 km/h (3 Bft)
21.02.2015 08:16 2,6 C 1,7 C 95 % 996,9 hPa 0,0 l/m 0 min 0 min 21 W/m 14,6 km/h (3 Bft)
21.02.2015 08:18 2,6 C 1,7 C 96 % 996,9 hPa 0,0 l/m 0 min 0 min 27 W/m 20,9 km/h (4 Bft)
21.02.2015 08:20 2,6 C 1,7 C 95 % 996,9 hPa 0,0 l/m 0 min 0 min 34 W/m 20,9 km/h (4 Bft)
21.02.2015 08:22 2,7 C 1,7 C 95 % 996,7 hPa 0,0 l/m 0 min 0 min 40 W/m 16,7 km/h (3 Bft)
21.02.2015 08:24 2,7 C 1,7 C 95 % 996,8 hPa 0,0 l/m 0 min 0 min 39 W/m 18,8 km/h (3 Bft)
21.02.2015 08:26 2,7 C 1,7 C 96 % 996,8 hPa 0,0 l/m 0 min 0 min 33 W/m 16,7 km/h (3 Bft)
21.02.2015 08:28 2,7 C 2,2 C 96 % 996,9 hPa 0,0 l/m 0 min 0 min 28 W/m 18,8 km/h (3 Bft)
21.02.2015 08:30 2,7 C 2,2 C 96 % 996,9 hPa 0,0 l/m 0 min 0 min 29 W/m 18,8 km/h (3 Bft)
21.02.2015 08:32 2,8 C 2,2 C 96 % 996,9 hPa 0,0 l/m 0 min 0 min 35 W/m 18,8 km/h (3 Bft)
21.02.2015 08:34 2,8 C 2,2 C 96 % 997,0 hPa 0,0 l/m 0 min 0 min 40 W/m 12,6 km/h (3 Bft)
21.02.2015 08:36 2,8 C 2,2 C 96 % 997,0 hPa 0,0 l/m 0 min 0 min 44 W/m 12,6 km/h (3 Bft)
21.02.2015 08:38 2,8 C 2,2 C 96 % 997,0 hPa 0,0 l/m 0 min 0 min 46 W/m 14,6 km/h (3 Bft)
21.02.2015 08:40 2,8 C 2,2 C 96 % 997,0 hPa 0,0 l/m 0 min 0 min 49 W/m 18,8 km/h (3 Bft)
21.02.2015 08:42 2,8 C 2,2 C 96 % 997,0 hPa 0,0 l/m 0 min 0 min 45 W/m 25,1 km/h (4 Bft)
21.02.2015 08:44 2,9 C 2,2 C 96 % 997,2 hPa 0,0 l/m 0 min 0 min 34 W/m 16,7 km/h (3 Bft)
21.02.2015 08:46 2,9 C 2,2 C 96 % 997,2 hPa 0,0 l/m 0 min 0 min 33 W/m 20,9 km/h (4 Bft)
21.02.2015 08:48 2,9 C 2,2 C 96 % 997,2 hPa 0,0 l/m 0 min 0 min 34 W/m 20,9 km/h (4 Bft)
21.02.2015 08:50 2,9 C 2,2 C 96 % 997,2 hPa 0,0 l/m 0 min 0 min 43 W/m 20,9 km/h (4 Bft)
21.02.2015 08:52 2,9 C 2,2 C 96 % 997,2 hPa 0,0 l/m 0 min 0 min 52 W/m 20,9 km/h (4 Bft)
21.02.2015 08:54 3,0 C 2,2 C 96 % 997,2 hPa 0,0 l/m 0 min 0 min 58 W/m 16,7 km/h (3 Bft)
21.02.2015 08:56 3,0 C 2,2 C 96 % 997,2 hPa 0,0 l/m 0 min 0 min 64 W/m 16,7 km/h (3 Bft)
21.02.2015 08:58 3,0 C 2,2 C 96 % 997,3 hPa 0,0 l/m 0 min 0 min 72 W/m 16,7 km/h (3 Bft)
21.02.2015 09:00 3,1 C 2,2 C 96 % 997,3 hPa 0,0 l/m 0 min 0 min 77 W/m 16,7 km/h (3 Bft)
21.02.2015 09:02 3,1 C 2,2 C 96 % 997,3 hPa 0,0 l/m 0 min 0 min 81 W/m 14,6 km/h (3 Bft)
21.02.2015 09:04 3,1 C 2,2 C 96 % 997,3 hPa 0,0 l/m 0 min 0 min 84 W/m 18,8 km/h (3 Bft)
21.02.2015 09:06 3,1 C 2,2 C 96 % 997,4 hPa 0,0 l/m 0 min 0 min 88 W/m 16,7 km/h (3 Bft)
21.02.2015 09:08 3,1 C 2,2 C 96 % 997,5 hPa 0,0 l/m 0 min 0 min 88 W/m 20,9 km/h (4 Bft)
21.02.2015 09:10 3,1 C 2,2 C 96 % 997,3 hPa 0,0 l/m 0 min 0 min 90 W/m 16,7 km/h (3 Bft)
21.02.2015 09:12 3,2 C 2,2 C 96 % 997,4 hPa 0,0 l/m 0 min 0 min 91 W/m 20,9 km/h (4 Bft)
21.02.2015 09:14 3,2 C 2,2 C 96 % 997,4 hPa 0,0 l/m 0 min 0 min 102 W/m 20,9 km/h (4 Bft)
21.02.2015 09:16 3,2 C 2,2 C 96 % 997,5 hPa 0,0 l/m 0 min 0 min 108 W/m 25,1 km/h (4 Bft)
21.02.2015 09:18 3,2 C 2,2 C 96 % 997,5 hPa 0,0 l/m 0 min 0 min 106 W/m 27,2 km/h (4 Bft)
21.02.2015 09:20 3,2 C 2,2 C 96 % 997,6 hPa 0,0 l/m 0 min 0 min 98 W/m 23,0 km/h (4 Bft)
21.02.2015 09:22 3,2 C 2,8 C 96 % 997,6 hPa 0,0 l/m 0 min 0 min 100 W/m 25,1 km/h (4 Bft)
21.02.2015 09:24 3,2 C 2,8 C 96 % 997,6 hPa 0,0 l/m 0 min 0 min 108 W/m 23,0 km/h (4 Bft)
21.02.2015 09:26 3,2 C 2,8 C 96 % 997,6 hPa 0,0 l/m 0 min 0 min 117 W/m 25,1 km/h (4 Bft)
21.02.2015 09:28 3,3 C 2,8 C 96 % 997,6 hPa 0,0 l/m 2 min 0 min 132 W/m 20,9 km/h (4 Bft)
21.02.2015 09:30 3,3 C 2,8 C 96 % 997,7 hPa 0,0 l/m 2 min 0 min 142 W/m 23,0 km/h (4 Bft)
21.02.2015 09:32 3,3 C 2,8 C 96 % 997,6 hPa 0,0 l/m 2 min 0 min 152 W/m 18,8 km/h (3 Bft)
21.02.2015 09:34 3,4 C 2,8 C 96 % 997,7 hPa 0,0 l/m 2 min 0 min 149 W/m 23,0 km/h (4 Bft)
21.02.2015 09:36 3,4 C 2,8 C 96 % 997,7 hPa 0,0 l/m 0 min 0 min 134 W/m 16,7 km/h (3 Bft)
21.02.2015 09:38 3,4 C 2,8 C 96 % 997,7 hPa 0,0 l/m 2 min 0 min 137 W/m 18,8 km/h (3 Bft)
21.02.2015 09:40 3,4 C 2,8 C 96 % 997,6 hPa 0,0 l/m 0 min 0 min 128 W/m 14,6 km/h (3 Bft)
21.02.2015 09:42 3,5 C 2,8 C 96 % 997,7 hPa 0,0 l/m 0 min 0 min 128 W/m 14,6 km/h (3 Bft)
21.02.2015 09:44 3,5 C 2,8 C 96 % 997,7 hPa 0,0 l/m 0 min 0 min 138 W/m 14,6 km/h (3 Bft)
21.02.2015 09:46 3,6 C 2,8 C 96 % 997,7 hPa 0,0 l/m 2 min 0 min 164 W/m 20,9 km/h (4 Bft)
21.02.2015 09:48 3,6 C 3,3 C 96 % 997,7 hPa 0,0 l/m 2 min 0 min 189 W/m 20,9 km/h (4 Bft)
21.02.2015 09:50 3,6 C 3,3 C 96 % 997,8 hPa 0,0 l/m 2 min 0 min 183 W/m 16,7 km/h (3 Bft)
21.02.2015 09:52 3,7 C 3,3 C 96 % 997,7 hPa 0,0 l/m 2 min 0 min 178 W/m 18,8 km/h (3 Bft)
21.02.2015 09:54 3,7 C 3,3 C 96 % 997,8 hPa 0,0 l/m 0 min 0 min 146 W/m 23,0 km/h (4 Bft)
21.02.2015 09:56 3,7 C 3,3 C 96 % 997,8 hPa 0,0 l/m 0 min 0 min 104 W/m 27,2 km/h (4 Bft)
21.02.2015 09:58 3,7 C 3,3 C 96 % 997,9 hPa 0,0 l/m 0 min 0 min 92 W/m 29,3 km/h (5 Bft)
21.02.2015 10:00 3,8 C 3,3 C 96 % 997,8 hPa 0,0 l/m 0 min 0 min 82 W/m 14,6 km/h (3 Bft)
21.02.2015 10:02 3,8 C 3,3 C 96 % 997,9 hPa 0,0 l/m 0 min 0 min 75 W/m 18,8 km/h (3 Bft)
21.02.2015 10:04 3,8 C 3,3 C 96 % 997,9 hPa 0,0 l/m 0 min 0 min 87 W/m 20,9 km/h (4 Bft)
21.02.2015 10:06 3,8 C 3,3 C 96 % 998,0 hPa 0,0 l/m 0 min 0 min 87 W/m 20,9 km/h (4 Bft)
21.02.2015 10:08 3,8 C 3,3 C 96 % 998,0 hPa 0,0 l/m 0 min 0 min 117 W/m 16,7 km/h (3 Bft)
21.02.2015 10:10 3,8 C 3,3 C 96 % 998,0 hPa 0,0 l/m 2 min 0 min 169 W/m 25,1 km/h (4 Bft)
21.02.2015 10:12 3,8 C 3,3 C 96 % 997,9 hPa 0,0 l/m 2 min 0 min 190 W/m 25,1 km/h (4 Bft)
21.02.2015 10:14 3,9 C 3,9 C 96 % 997,9 hPa 0,0 l/m 2 min 0 min 181 W/m 14,6 km/h (3 Bft)
21.02.2015 10:16 3,9 C 3,9 C 96 % 997,9 hPa 0,0 l/m 2 min 0 min 194 W/m 23,0 km/h (4 Bft)
21.02.2015 10:18 4,0 C 3,9 C 96 % 998,0 hPa 0,0 l/m 2 min 0 min 204 W/m 23,0 km/h (4 Bft)
21.02.2015 10:20 4,0 C 3,9 C 96 % 998,0 hPa 0,0 l/m 0 min 0 min 133 W/m 25,1 km/h (4 Bft)
21.02.2015 10:22 4,0 C 3,9 C 96 % 998,0 hPa 0,0 l/m 0 min 0 min 119 W/m 16,7 km/h (3 Bft)
21.02.2015 10:24 4,1 C 3,9 C 96 % 998,0 hPa 0,0 l/m 0 min 0 min 136 W/m 23,0 km/h (4 Bft)
21.02.2015 10:26 4,1 C 3,9 C 96 % 998,1 hPa 0,0 l/m 0 min 0 min 97 W/m 18,8 km/h (3 Bft)
21.02.2015 10:28 4,1 C 3,3 C 96 % 998,1 hPa 0,0 l/m 0 min 0 min 90 W/m 23,0 km/h (4 Bft)
21.02.2015 10:30 4,1 C 3,3 C 96 % 998,1 hPa 0,0 l/m 0 min 0 min 110 W/m 20,9 km/h (4 Bft)
21.02.2015 10:32 4,1 C 3,9 C 96 % 998,1 hPa 0,0 l/m 0 min 0 min 139 W/m 20,9 km/h (4 Bft)
21.02.2015 10:34 4,1 C 3,3 C 96 % 998,1 hPa 0,0 l/m 0 min 0 min 104 W/m 18,8 km/h (3 Bft)
21.02.2015 10:36 4,1 C 3,3 C 95 % 998,1 hPa 0,0 l/m 0 min 0 min 76 W/m 18,8 km/h (3 Bft)
21.02.2015 10:38 4,2 C 3,3 C 95 % 998,2 hPa 0,0 l/m 0 min 0 min 83 W/m 14,6 km/h (3 Bft)
21.02.2015 10:40 4,2 C 3,3 C 96 % 998,1 hPa 0,0 l/m 0 min 0 min 90 W/m 12,6 km/h (3 Bft)
21.02.2015 10:42 4,2 C 3,3 C 95 % 998,2 hPa 0,0 l/m 0 min 0 min 93 W/m 10,5 km/h (2 Bft)
21.02.2015 10:44 4,2 C 3,3 C 95 % 998,2 hPa 0,0 l/m 0 min 0 min 102 W/m 8,4 km/h (2 Bft)
21.02.2015 10:46 4,2 C 3,9 C 95 % 998,2 hPa 0,0 l/m 0 min 0 min 115 W/m 12,6 km/h (3 Bft)
21.02.2015 10:48 4,2 C 3,9 C 95 % 998,2 hPa 0,0 l/m 0 min 0 min 118 W/m 14,6 km/h (3 Bft)
21.02.2015 10:50 4,2 C 3,9 C 95 % 998,2 hPa 0,0 l/m 0 min 0 min 123 W/m 16,7 km/h (3 Bft)
21.02.2015 10:52 4,2 C 3,9 C 95 % 998,2 hPa 0,0 l/m 0 min 0 min 134 W/m 29,3 km/h (5 Bft)
21.02.2015 10:54 4,2 C 3,9 C 95 % 998,3 hPa 0,0 l/m 0 min 0 min 147 W/m 18,8 km/h (3 Bft)
21.02.2015 10:56 4,3 C 3,9 C 95 % 998,2 hPa 0,0 l/m 0 min 0 min 171 W/m 16,7 km/h (3 Bft)
21.02.2015 10:58 4,3 C 3,9 C 95 % 998,3 hPa 0,0 l/m 0 min 0 min 164 W/m 27,2 km/h (4 Bft)
21.02.2015 11:00 4,3 C 3,9 C 95 % 998,3 hPa 0,0 l/m 0 min 0 min 134 W/m 27,2 km/h (4 Bft)
21.02.2015 11:02 4,3 C 3,9 C 95 % 998,3 hPa 0,0 l/m 0 min 2 min 102 W/m 25,1 km/h (4 Bft)
21.02.2015 11:04 4,3 C 3,3 C 95 % 998,3 hPa 0,0 l/m 0 min 2 min 81 W/m 20,9 km/h (4 Bft)
21.02.2015 11:06 4,4 C 3,3 C 94 % 998,3 hPa 0,0 l/m 0 min 0 min 93 W/m 14,6 km/h (3 Bft)
21.02.2015 11:08 4,4 C 3,3 C 94 % 998,3 hPa 0,0 l/m 0 min 0 min 98 W/m 29,3 km/h (5 Bft)
21.02.2015 11:10 4,4 C 3,3 C 94 % 998,3 hPa 0,0 l/m 0 min 0 min 94 W/m 25,1 km/h (4 Bft)
21.02.2015 11:12 4,4 C 3,3 C 94 % 998,3 hPa 0,0 l/m 0 min 0 min 95 W/m 16,7 km/h (3 Bft)
21.02.2015 11:14 4,4 C 3,3 C 94 % 998,4 hPa 0,0 l/m 0 min 0 min 102 W/m 14,6 km/h (3 Bft)
21.02.2015 11:16 4,4 C 3,3 C 94 % 998,4 hPa 0,0 l/m 0 min 0 min 108 W/m 14,6 km/h (3 Bft)
21.02.2015 11:18 4,4 C 3,3 C 94 % 998,4 hPa 0,0 l/m 0 min 0 min 121 W/m 10,5 km/h (2 Bft)
21.02.2015 11:20 4,4 C 3,9 C 94 % 998,4 hPa 0,0 l/m 0 min 0 min 153 W/m 16,7 km/h (3 Bft)
21.02.2015 11:22 4,4 C 3,9 C 94 % 998,4 hPa 0,0 l/m 0 min 0 min 185 W/m 18,8 km/h (3 Bft)
21.02.2015 11:24 4,4 C 3,9 C 94 % 998,4 hPa 0,0 l/m 0 min 0 min 211 W/m 18,8 km/h (3 Bft)
21.02.2015 11:26 4,5 C 3,9 C 94 % 998,4 hPa 0,0 l/m 0 min 0 min 184 W/m 18,8 km/h (3 Bft)
21.02.2015 11:28 4,5 C 3,9 C 94 % 998,4 hPa 0,0 l/m 0 min 0 min 135 W/m 14,6 km/h (3 Bft)
21.02.2015 11:30 4,6 C 4,4 C 94 % 998,4 hPa 0,0 l/m 0 min 0 min 139 W/m 12,6 km/h (3 Bft)
21.02.2015 11:32 4,6 C 4,4 C 94 % 998,4 hPa 0,0 l/m 0 min 0 min 204 W/m 18,8 km/h (3 Bft)
21.02.2015 11:34 4,7 C 4,4 C 94 % 998,4 hPa 0,0 l/m 2 min 0 min 224 W/m 18,8 km/h (3 Bft)
21.02.2015 11:36 4,7 C 4,4 C 94 % 998,5 hPa 0,0 l/m 2 min 0 min 227 W/m 18,8 km/h (3 Bft)
21.02.2015 11:38 4,7 C 4,4 C 94 % 998,4 hPa 0,0 l/m 0 min 0 min 202 W/m 16,7 km/h (3 Bft)
21.02.2015 11:40 4,8 C 4,4 C 94 % 998,4 hPa 0,0 l/m 0 min 0 min 216 W/m 18,8 km/h (3 Bft)
21.02.2015 11:42 4,8 C 4,4 C 93 % 998,5 hPa 0,0 l/m 2 min 0 min 251 W/m 20,9 km/h (4 Bft)
21.02.2015 11:44 4,8 C 4,4 C 93 % 998,5 hPa 0,0 l/m 0 min 0 min 221 W/m 18,8 km/h (3 Bft)
21.02.2015 11:46 4,9 C 4,4 C 93 % 998,5 hPa 0,0 l/m 0 min 0 min 116 W/m 18,8 km/h (3 Bft)
21.02.2015 11:48 4,9 C 3,9 C 93 % 998,5 hPa 0,0 l/m 0 min 0 min 109 W/m 16,7 km/h (3 Bft)
21.02.2015 11:50 4,9 C 3,9 C 93 % 998,5 hPa 0,0 l/m 0 min 0 min 112 W/m 18,8 km/h (3 Bft)
21.02.2015 11:52 4,9 C 3,9 C 92 % 998,5 hPa 0,0 l/m 0 min 0 min 114 W/m 25,1 km/h (4 Bft)
21.02.2015 11:54 4,9 C 3,9 C 92 % 998,5 hPa 0,0 l/m 0 min 0 min 101 W/m 20,9 km/h (4 Bft)
21.02.2015 11:56 4,9 C 4,4 C 92 % 998,5 hPa 0,0 l/m 0 min 0 min 156 W/m 18,8 km/h (3 Bft)
21.02.2015 11:58 5,0 C 5,0 C 92 % 998,5 hPa 0,0 l/m 0 min 0 min 207 W/m 12,6 km/h (3 Bft)
21.02.2015 12:00 5,1 C 5,0 C 92 % 998,5 hPa 0,0 l/m 2 min 0 min 267 W/m 25,1 km/h (4 Bft)
21.02.2015 12:02 5,2 C 5,6 C 91 % 998,5 hPa 0,0 l/m 2 min 0 min 267 W/m 25,1 km/h (4 Bft)
21.02.2015 12:06 5,4 C 6,1 C 91 % 998,5 hPa 0,0 l/m 2 min 0 min 334 W/m 27,2 km/h (4 Bft)
21.02.2015 12:08 5,5 C 6,1 C 91 % 998,5 hPa 0,0 l/m 2 min 0 min 342 W/m 27,2 km/h (4 Bft)
21.02.2015 12:10 5,6 C 5,6 C 91 % 998,5 hPa 0,0 l/m 2 min 0 min 246 W/m 18,8 km/h (3 Bft)
21.02.2015 12:12 5,7 C 5,6 C 90 % 998,5 hPa 0,0 l/m 0 min 0 min 131 W/m 20,9 km/h (4 Bft)
21.02.2015 12:14 5,7 C 5,0 C 90 % 998,5 hPa 0,0 l/m 0 min 0 min 112 W/m 18,8 km/h (3 Bft)
21.02.2015 12:16 5,7 C 5,0 C 89 % 998,4 hPa 0,0 l/m 0 min 0 min 122 W/m 18,8 km/h (3 Bft)
21.02.2015 12:18 5,7 C 5,0 C 88 % 998,4 hPa 0,0 l/m 0 min 0 min 121 W/m 27,2 km/h (4 Bft)
21.02.2015 12:20 5,6 C 4,4 C 88 % 998,4 hPa 0,0 l/m 0 min 0 min 114 W/m 23,0 km/h (4 Bft)
21.02.2015 12:22 5,6 C 4,4 C 87 % 998,4 hPa 0,0 l/m 0 min 0 min 115 W/m 25,1 km/h (4 Bft)
21.02.2015 12:24 5,6 C 4,4 C 87 % 998,4 hPa 0,0 l/m 0 min 0 min 122 W/m 23,0 km/h (4 Bft)
21.02.2015 12:26 5,6 C 5,0 C 87 % 998,4 hPa 0,0 l/m 2 min 0 min 459 W/m 27,2 km/h (4 Bft)
21.02.2015 12:28 5,7 C 5,0 C 87 % 998,5 hPa 0,0 l/m 2 min 0 min 492 W/m 27,2 km/h (4 Bft)
21.02.2015 12:30 5,7 C 5,0 C 87 % 998,4 hPa 0,0 l/m 2 min 0 min 489 W/m 16,7 km/h (3 Bft)
21.02.2015 12:32 5,8 C 5,6 C 87 % 998,5 hPa 0,0 l/m 2 min 0 min 537 W/m 27,2 km/h (4 Bft)
21.02.2015 12:34 5,9 C 5,6 C 87 % 998,5 hPa 0,0 l/m 2 min 0 min 578 W/m 23,0 km/h (4 Bft)
21.02.2015 12:36 6,1 C 6,1 C 87 % 998,4 hPa 0,0 l/m 2 min 0 min 566 W/m 27,2 km/h (4 Bft)
21.02.2015 12:38 6,2 C 6,1 C 86 % 998,4 hPa 0,0 l/m 2 min 0 min 544 W/m 20,9 km/h (4 Bft)
21.02.2015 12:40 6,3 C 6,7 C 86 % 998,4 hPa 0,0 l/m 2 min 0 min 573 W/m 23,0 km/h (4 Bft)
21.02.2015 12:42 6,4 C 6,7 C 85 % 998,3 hPa 0,0 l/m 2 min 0 min 596 W/m 20,9 km/h (4 Bft)
21.02.2015 12:44 6,5 C 6,1 C 85 % 998,3 hPa 0,0 l/m 2 min 0 min 544 W/m 31,4 km/h (5 Bft)
21.02.2015 12:46 6,6 C 6,1 C 84 % 998,3 hPa 0,0 l/m 2 min 0 min 311 W/m 33,5 km/h (5 Bft)
21.02.2015 12:48 6,6 C 5,0 C 83 % 998,5 hPa 0,0 l/m 0 min 2 min 72 W/m 37,7 km/h (5 Bft)
21.02.2015 12:50 6,4 C 4,4 C 83 % 998,6 hPa 0,0 l/m 0 min 2 min 32 W/m 29,3 km/h (5 Bft)
21.02.2015 12:52 6,3 C 3,3 C 83 % 998,6 hPa 0,0 l/m 0 min 2 min 28 W/m 23,0 km/h (4 Bft)
21.02.2015 12:54 6,0 C 2,8 C 82 % 998,7 hPa 0,0 l/m 0 min 2 min 27 W/m 29,3 km/h (5 Bft)
21.02.2015 12:56 5,7 C 2,2 C 83 % 998,7 hPa 0,0 l/m 0 min 2 min 33 W/m 43,9 km/h (6 Bft)
21.02.2015 12:58 5,3 C 2,2 C 83 % 998,8 hPa 0,2 l/m 0 min 2 min 28 W/m 35,6 km/h (5 Bft)
21.02.2015 13:00 4,9 C 1,7 C 83 % 998,8 hPa 0,2 l/m 0 min 2 min 21 W/m 25,1 km/h (4 Bft)
21.02.2015 13:02 4,7 C 1,7 C 84 % 998,8 hPa 0,2 l/m 0 min 2 min 23 W/m 16,7 km/h (3 Bft)
21.02.2015 13:04 4,4 C 1,7 C 84 % 998,7 hPa 0,2 l/m 0 min 2 min 26 W/m 27,2 km/h (4 Bft)
21.02.2015 13:06 4,3 C 1,1 C 85 % 998,6 hPa 0,0 l/m 0 min 2 min 31 W/m 23,0 km/h (4 Bft)
21.02.2015 13:08 4,1 C 1,1 C 85 % 998,5 hPa 0,4 l/m 0 min 2 min 48 W/m 18,8 km/h (3 Bft)
21.02.2015 13:10 4,0 C 1,7 C 86 % 998,4 hPa 0,0 l/m 0 min 2 min 69 W/m 14,6 km/h (3 Bft)
21.02.2015 13:12 3,9 C 1,7 C 86 % 998,5 hPa 0,0 l/m 0 min 2 min 78 W/m 18,8 km/h (3 Bft)
21.02.2015 13:14 3,8 C 1,7 C 87 % 998,6 hPa 0,0 l/m 0 min 2 min 89 W/m 10,5 km/h (2 Bft)
21.02.2015 13:16 3,8 C 2,2 C 87 % 998,6 hPa 0,0 l/m 0 min 2 min 96 W/m 14,6 km/h (3 Bft)
21.02.2015 13:18 3,7 C 1,7 C 88 % 998,6 hPa 0,0 l/m 0 min 2 min 84 W/m 12,6 km/h (3 Bft)
21.02.2015 13:20 3,7 C 1,7 C 88 % 998,5 hPa 0,0 l/m 0 min 2 min 66 W/m 29,3 km/h (5 Bft)
21.02.2015 13:22 3,7 C 1,7 C 88 % 998,6 hPa 0,0 l/m 0 min 2 min 38 W/m 23,0 km/h (4 Bft)
21.02.2015 13:24 3,6 C 1,7 C 88 % 998,7 hPa 0,0 l/m 0 min 2 min 34 W/m 29,3 km/h (5 Bft)
21.02.2015 13:26 3,5 C 1,7 C 89 % 998,5 hPa 0,2 l/m 0 min 2 min 57 W/m 25,1 km/h (4 Bft)
21.02.2015 13:28 3,4 C 1,7 C 89 % 998,4 hPa 0,2 l/m 0 min 2 min 100 W/m 14,6 km/h (3 Bft)
21.02.2015 13:30 3,4 C 1,7 C 89 % 998,4 hPa 0,0 l/m 0 min 2 min 108 W/m 10,5 km/h (2 Bft)
21.02.2015 13:32 3,4 C 1,7 C 89 % 998,4 hPa 0,0 l/m 0 min 2 min 100 W/m 8,4 km/h (2 Bft)
21.02.2015 13:34 3,3 C 2,2 C 90 % 998,4 hPa 0,0 l/m 0 min 2 min 107 W/m 10,5 km/h (2 Bft)
21.02.2015 13:36 3,4 C 2,2 C 90 % 998,3 hPa 0,0 l/m 0 min 2 min 141 W/m 8,4 km/h (2 Bft)
21.02.2015 13:38 3,4 C 2,8 C 90 % 998,3 hPa 0,0 l/m 0 min 2 min 150 W/m 10,5 km/h (2 Bft)
21.02.2015 13:40 3,4 C 2,8 C 90 % 998,3 hPa 0,0 l/m 0 min 2 min 225 W/m 4,2 km/h (1 Bft)
21.02.2015 13:42 3,4 C 2,8 C 91 % 998,2 hPa 0,0 l/m 2 min 2 min 420 W/m 12,6 km/h (3 Bft)
21.02.2015 13:44 3,5 C 2,8 C 91 % 998,2 hPa 0,0 l/m 2 min 2 min 422 W/m 10,5 km/h (2 Bft)
21.02.2015 13:46 3,7 C 2,8 C 91 % 998,2 hPa 0,0 l/m 2 min 2 min 408 W/m 10,5 km/h (2 Bft)
21.02.2015 13:48 3,8 C 3,3 C 92 % 998,2 hPa 0,0 l/m 2 min 2 min 360 W/m 10,5 km/h (2 Bft)
21.02.2015 13:50 3,9 C 2,8 C 92 % 998,2 hPa 0,0 l/m 0 min 0 min 186 W/m 12,6 km/h (3 Bft)
21.02.2015 13:52 3,9 C 2,8 C 92 % 998,3 hPa 0,0 l/m 0 min 0 min 57 W/m 10,5 km/h (2 Bft)
21.02.2015 13:54 3,9 C 2,8 C 92 % 998,3 hPa 0,0 l/m 0 min 0 min 63 W/m 10,5 km/h (2 Bft)
21.02.2015 13:56 4,0 C 2,8 C 92 % 998,3 hPa 0,0 l/m 0 min 0 min 67 W/m 10,5 km/h (2 Bft)
21.02.2015 13:58 4,0 C 2,8 C 92 % 998,3 hPa 0,0 l/m 0 min 0 min 55 W/m 8,4 km/h (2 Bft)
21.02.2015 14:00 4,0 C 2,8 C 92 % 998,3 hPa 0,0 l/m 0 min 0 min 52 W/m 12,6 km/h (3 Bft)
21.02.2015 14:02 4,1 C 2,8 C 92 % 998,4 hPa 0,0 l/m 0 min 2 min 60 W/m 10,5 km/h (2 Bft)
21.02.2015 14:04 4,1 C 2,8 C 92 % 998,4 hPa 0,0 l/m 0 min 0 min 74 W/m 20,9 km/h (4 Bft)
21.02.2015 14:06 4,1 C 2,8 C 93 % 998,5 hPa 0,0 l/m 0 min 0 min 85 W/m 16,7 km/h (3 Bft)
21.02.2015 14:08 4,1 C 2,8 C 93 % 998,4 hPa 0,0 l/m 0 min 0 min 97 W/m 18,8 km/h (3 Bft)
21.02.2015 14:10 4,1 C 2,8 C 93 % 998,4 hPa 0,0 l/m 0 min 0 min 100 W/m 20,9 km/h (4 Bft)
21.02.2015 14:12 4,1 C 3,3 C 93 % 998,4 hPa 0,0 l/m 0 min 0 min 121 W/m 10,5 km/h (2 Bft)
21.02.2015 14:14 4,2 C 3,3 C 93 % 998,4 hPa 0,0 l/m 2 min 0 min 240 W/m 12,6 km/h (3 Bft)
21.02.2015 14:16 4,2 C 3,9 C 93 % 998,4 hPa 0,0 l/m 2 min 0 min 444 W/m 14,6 km/h (3 Bft)
21.02.2015 14:18 4,3 C 4,4 C 93 % 998,3 hPa 0,0 l/m 2 min 0 min 488 W/m 12,6 km/h (3 Bft)
21.02.2015 14:20 4,4 C 4,4 C 93 % 998,3 hPa 0,0 l/m 2 min 0 min 425 W/m 14,6 km/h (3 Bft)
21.02.2015 14:22 4,6 C 4,4 C 93 % 998,4 hPa 0,0 l/m 2 min 0 min 410 W/m 10,5 km/h (2 Bft)
21.02.2015 14:24 4,7 C 4,4 C 93 % 998,4 hPa 0,0 l/m 2 min 0 min 382 W/m 16,7 km/h (3 Bft)
21.02.2015 14:26 4,8 C 4,4 C 94 % 998,4 hPa 0,0 l/m 2 min 0 min 372 W/m 14,6 km/h (3 Bft)
21.02.2015 14:28 4,9 C 4,4 C 94 % 998,5 hPa 0,0 l/m 2 min 0 min 339 W/m 12,6 km/h (3 Bft)
21.02.2015 14:30 5,0 C 3,9 C 94 % 998,5 hPa 0,0 l/m 0 min 0 min 163 W/m 16,7 km/h (3 Bft)
21.02.2015 14:32 5,1 C 3,9 C 94 % 998,5 hPa 0,0 l/m 0 min 0 min 132 W/m 16,7 km/h (3 Bft)
21.02.2015 14:34 5,1 C 3,9 C 93 % 998,6 hPa 0,0 l/m 0 min 0 min 200 W/m 20,9 km/h (4 Bft)
21.02.2015 14:36 5,2 C 3,9 C 93 % 998,6 hPa 0,0 l/m 2 min 0 min 256 W/m 18,8 km/h (3 Bft)
21.02.2015 14:38 5,3 C 4,4 C 93 % 998,6 hPa 0,0 l/m 2 min 0 min 247 W/m 12,6 km/h (3 Bft)
21.02.2015 14:40 5,4 C 4,4 C 93 % 998,5 hPa 0,0 l/m 2 min 0 min 351 W/m 14,6 km/h (3 Bft)
21.02.2015 14:42 5,6 C 4,4 C 93 % 998,6 hPa 0,0 l/m 2 min 0 min 319 W/m 18,8 km/h (3 Bft)
21.02.2015 14:44 5,7 C 4,4 C 93 % 998,6 hPa 0,0 l/m 0 min 0 min 192 W/m 16,7 km/h (3 Bft)
21.02.2015 14:46 5,7 C 3,9 C 93 % 998,6 hPa 0,0 l/m 0 min 0 min 90 W/m 20,9 km/h (4 Bft)
21.02.2015 14:48 5,7 C 3,9 C 92 % 998,7 hPa 0,0 l/m 0 min 0 min 88 W/m 14,6 km/h (3 Bft)
21.02.2015 14:50 5,7 C 3,9 C 92 % 998,6 hPa 0,0 l/m 0 min 0 min 109 W/m 12,6 km/h (3 Bft)
21.02.2015 14:52 5,7 C 3,9 C 92 % 998,5 hPa 0,0 l/m 0 min 0 min 128 W/m 12,6 km/h (3 Bft)
21.02.2015 14:54 5,8 C 4,4 C 91 % 998,6 hPa 0,0 l/m 0 min 0 min 141 W/m 12,6 km/h (3 Bft)
21.02.2015 14:56 5,8 C 4,4 C 91 % 998,6 hPa 0,0 l/m 0 min 0 min 144 W/m 12,6 km/h (3 Bft)
21.02.2015 14:58 5,8 C 4,4 C 90 % 998,5 hPa 0,0 l/m 0 min 0 min 137 W/m 16,7 km/h (3 Bft)
21.02.2015 15:00 5,8 C 4,4 C 90 % 998,6 hPa 0,0 l/m 0 min 0 min 136 W/m 16,7 km/h (3 Bft)
21.02.2015 15:02 5,8 C 4,4 C 90 % 998,6 hPa 0,0 l/m 0 min 0 min 136 W/m 14,6 km/h (3 Bft)
21.02.2015 15:04 5,8 C 4,4 C 89 % 998,7 hPa 0,0 l/m 0 min 0 min 118 W/m 14,6 km/h (3 Bft)
21.02.2015 15:06 5,8 C 4,4 C 89 % 998,7 hPa 0,0 l/m 0 min 0 min 106 W/m 10,5 km/h (2 Bft)
21.02.2015 15:08 5,8 C 3,9 C 89 % 998,7 hPa 0,0 l/m 0 min 0 min 105 W/m 23,0 km/h (4 Bft)
21.02.2015 15:10 5,8 C 3,9 C 89 % 998,8 hPa 0,0 l/m 0 min 0 min 94 W/m 16,7 km/h (3 Bft)
21.02.2015 15:12 5,8 C 3,9 C 88 % 998,8 hPa 0,0 l/m 0 min 0 min 89 W/m 14,6 km/h (3 Bft)
21.02.2015 15:14 5,8 C 3,9 C 88 % 998,9 hPa 0,0 l/m 0 min 0 min 85 W/m 10,5 km/h (2 Bft)
21.02.2015 15:16 5,8 C 3,9 C 87 % 998,8 hPa 0,0 l/m 0 min 0 min 90 W/m 10,5 km/h (2 Bft)
21.02.2015 15:18 5,8 C 3,9 C 87 % 998,8 hPa 0,0 l/m 0 min 0 min 114 W/m 16,7 km/h (3 Bft)
21.02.2015 15:20 5,8 C 3,9 C 87 % 999,0 hPa 0,0 l/m 0 min 0 min 104 W/m 18,8 km/h (3 Bft)
21.02.2015 15:22 5,8 C 3,9 C 86 % 999,1 hPa 0,0 l/m 0 min 0 min 71 W/m 35,6 km/h (5 Bft)
21.02.2015 15:24 5,7 C 3,3 C 86 % 999,2 hPa 0,0 l/m 0 min 0 min 73 W/m 27,2 km/h (4 Bft)
21.02.2015 15:26 5,7 C 3,3 C 86 % 999,2 hPa 0,0 l/m 0 min 0 min 103 W/m 20,9 km/h (4 Bft)
21.02.2015 15:28 5,6 C 3,3 C 86 % 999,3 hPa 0,0 l/m 0 min 0 min 109 W/m 27,2 km/h (4 Bft)
21.02.2015 15:30 5,4 C 3,3 C 85 % 999,3 hPa 0,0 l/m 0 min 0 min 100 W/m 25,1 km/h (4 Bft)
21.02.2015 15:32 5,3 C 2,8 C 86 % 999,3 hPa 0,0 l/m 0 min 0 min 88 W/m 27,2 km/h (4 Bft)
21.02.2015 15:34 5,2 C 2,8 C 86 % 999,2 hPa 0,0 l/m 0 min 0 min 74 W/m 29,3 km/h (5 Bft)
21.02.2015 15:36 5,1 C 2,8 C 86 % 999,2 hPa 0,0 l/m 0 min 0 min 55 W/m 31,4 km/h (5 Bft)
21.02.2015 15:38 5,0 C 2,8 C 86 % 999,2 hPa 0,0 l/m 0 min 0 min 46 W/m 31,4 km/h (5 Bft)
21.02.2015 15:40 4,9 C 2,8 C 86 % 999,4 hPa 0,0 l/m 0 min 0 min 36 W/m 16,7 km/h (3 Bft)
21.02.2015 15:42 4,8 C 2,8 C 87 % 999,3 hPa 0,0 l/m 0 min 0 min 37 W/m 23,0 km/h (4 Bft)
21.02.2015 15:44 4,7 C 2,8 C 87 % 999,3 hPa 0,0 l/m 0 min 0 min 46 W/m 16,7 km/h (3 Bft)
21.02.2015 15:46 4,7 C 2,8 C 87 % 999,3 hPa 0,0 l/m 0 min 0 min 60 W/m 18,8 km/h (3 Bft)
21.02.2015 15:48 4,6 C 2,8 C 87 % 999,3 hPa 0,0 l/m 0 min 0 min 68 W/m 14,6 km/h (3 Bft)
21.02.2015 15:50 4,5 C 2,8 C 87 % 999,3 hPa 0,0 l/m 0 min 0 min 62 W/m 16,7 km/h (3 Bft)
21.02.2015 15:52 4,4 C 2,8 C 87 % 999,3 hPa 0,0 l/m 0 min 0 min 52 W/m 18,8 km/h (3 Bft)
21.02.2015 15:54 4,4 C 2,2 C 87 % 999,3 hPa 0,0 l/m 0 min 0 min 43 W/m 12,6 km/h (3 Bft)
21.02.2015 15:56 4,3 C 2,2 C 88 % 999,3 hPa 0,0 l/m 0 min 0 min 36 W/m 23,0 km/h (4 Bft)
21.02.2015 15:58 4,2 C 2,2 C 88 % 999,3 hPa 0,0 l/m 0 min 0 min 38 W/m 12,6 km/h (3 Bft)
21.02.2015 16:00 4,2 C 2,2 C 88 % 999,4 hPa 0,0 l/m 0 min 0 min 40 W/m 18,8 km/h (3 Bft)
21.02.2015 16:02 4,1 C 2,2 C 88 % 999,3 hPa 0,0 l/m 0 min 2 min 37 W/m 20,9 km/h (4 Bft)
21.02.2015 16:04 4,1 C 2,2 C 89 % 999,4 hPa 0,0 l/m 0 min 2 min 38 W/m 16,7 km/h (3 Bft)
21.02.2015 16:06 4,0 C 2,2 C 89 % 999,4 hPa 0,0 l/m 0 min 2 min 42 W/m 14,6 km/h (3 Bft)
21.02.2015 16:08 3,9 C 2,2 C 89 % 999,4 hPa 0,0 l/m 0 min 2 min 43 W/m 18,8 km/h (3 Bft)
21.02.2015 16:10 3,9 C 2,2 C 89 % 999,4 hPa 0,0 l/m 0 min 2 min 41 W/m 16,7 km/h (3 Bft)
21.02.2015 16:13 3,9 C 2,2 C 89 % 999,4 hPa 0,0 l/m 0 min 2 min 38 W/m 14,6 km/h (3 Bft)
21.02.2015 16:14 3,9 C 2,2 C 90 % 999,4 hPa 0,0 l/m 0 min 1 min 39 W/m 20,9 km/h (4 Bft)
21.02.2015 16:18 3,8 C 2,2 C 90 % 999,4 hPa 0,0 l/m 0 min 2 min 47 W/m 16,7 km/h (3 Bft)
21.02.2015 16:19 3,8 C 2,2 C 90 % 999,4 hPa 0,0 l/m 0 min 1 min 74 W/m 8,4 km/h (2 Bft)
21.02.2015 16:20 3,8 C 2,2 C 90 % 999,4 hPa 0,0 l/m 0 min 1 min 107 W/m 8,4 km/h (2 Bft)
21.02.2015 16:21 3,8 C 2,2 C 90 % 999,4 hPa 0,0 l/m 0 min 1 min 99 W/m 6,3 km/h (2 Bft)
21.02.2015 16:22 3,8 C 2,2 C 90 % 999,4 hPa 0,0 l/m 0 min 1 min 102 W/m 6,3 km/h (2 Bft)
21.02.2015 16:23 3,8 C 2,8 C 90 % 999,4 hPa 0,0 l/m 0 min 1 min 102 W/m 4,2 km/h (1 Bft)
21.02.2015 16:26 3,8 C 2,8 C 91 % 999,4 hPa 0,0 l/m 0 min 2 min 98 W/m 6,3 km/h (2 Bft)
21.02.2015 16:28 3,8 C 2,8 C 91 % 999,4 hPa 0,0 l/m 0 min 0 min 98 W/m 4,2 km/h (1 Bft)
21.02.2015 16:30 3,8 C 2,8 C 91 % 999,4 hPa 0,0 l/m 0 min 0 min 97 W/m 6,3 km/h (2 Bft)
21.02.2015 16:32 3,8 C 2,8 C 91 % 999,6 hPa 0,0 l/m 0 min 0 min 96 W/m 8,4 km/h (2 Bft)
21.02.2015 16:34 3,8 C 2,8 C 91 % 999,6 hPa 0,0 l/m 0 min 0 min 91 W/m 6,3 km/h (2 Bft)
21.02.2015 16:36 3,8 C 2,8 C 91 % 999,4 hPa 0,0 l/m 0 min 0 min 78 W/m 6,3 km/h (2 Bft)
21.02.2015 16:38 3,8 C 2,8 C 91 % 999,4 hPa 0,0 l/m 0 min 0 min 70 W/m 8,4 km/h (2 Bft)
21.02.2015 16:40 3,8 C 2,8 C 91 % 999,4 hPa 0,0 l/m 0 min 0 min 68 W/m 8,4 km/h (2 Bft)
21.02.2015 16:42 3,8 C 2,2 C 91 % 999,4 hPa 0,0 l/m 0 min 0 min 63 W/m 10,5 km/h (2 Bft)
21.02.2015 16:44 3,8 C 2,2 C 91 % 999,4 hPa 0,0 l/m 0 min 0 min 53 W/m 10,5 km/h (2 Bft)
21.02.2015 16:46 3,8 C 2,2 C 91 % 999,4 hPa 0,0 l/m 0 min 0 min 45 W/m 10,5 km/h (2 Bft)
21.02.2015 16:48 3,7 C 2,2 C 91 % 999,6 hPa 0,0 l/m 0 min 0 min 38 W/m 8,4 km/h (2 Bft)
21.02.2015 16:50 3,7 C 2,2 C 91 % 999,6 hPa 0,0 l/m 0 min 0 min 35 W/m 6,3 km/h (2 Bft)
21.02.2015 16:52 3,7 C 2,2 C 92 % 999,6 hPa 0,0 l/m 0 min 0 min 37 W/m 6,3 km/h (2 Bft)
21.02.2015 16:54 3,7 C 2,2 C 92 % 999,4 hPa 0,0 l/m 0 min 0 min 38 W/m 8,4 km/h (2 Bft)
21.02.2015 16:56 3,7 C 2,2 C 92 % 999,5 hPa 0,0 l/m 0 min 0 min 34 W/m 6,3 km/h (2 Bft)
21.02.2015 16:58 3,7 C 2,2 C 92 % 999,4 hPa 0,0 l/m 0 min 0 min 26 W/m 6,3 km/h (2 Bft)
21.02.2015 17:00 3,7 C 2,2 C 92 % 999,5 hPa 0,0 l/m 0 min 0 min 21 W/m 8,4 km/h (2 Bft)
21.02.2015 17:02 3,7 C 2,2 C 92 % 999,6 hPa 0,0 l/m 0 min 0 min 19 W/m 8,4 km/h (2 Bft)
21.02.2015 17:04 3,7 C 2,2 C 92 % 999,6 hPa 0,0 l/m 0 min 0 min 19 W/m 6,3 km/h (2 Bft)
21.02.2015 17:06 3,7 C 2,2 C 92 % 999,8 hPa 0,0 l/m 0 min 0 min 19 W/m 6,3 km/h (2 Bft)
21.02.2015 17:08 3,7 C 2,2 C 92 % 999,7 hPa 0,0 l/m 0 min 0 min 19 W/m 8,4 km/h (2 Bft)
21.02.2015 17:10 3,7 C 2,2 C 92 % 999,7 hPa 0,0 l/m 0 min 0 min 19 W/m 10,5 km/h (2 Bft)
21.02.2015 17:12 3,6 C 2,2 C 92 % 999,6 hPa 0,0 l/m 0 min 0 min 22 W/m 12,6 km/h (3 Bft)
21.02.2015 17:14 3,6 C 2,2 C 92 % 999,6 hPa 0,0 l/m 0 min 0 min 25 W/m 8,4 km/h (2 Bft)
21.02.2015 17:16 3,6 C 2,2 C 92 % 999,6 hPa 0,0 l/m 0 min 0 min 24 W/m 8,4 km/h (2 Bft)
21.02.2015 17:18 3,6 C 2,2 C 92 % 999,7 hPa 0,0 l/m 0 min 0 min 22 W/m 6,3 km/h (2 Bft)
21.02.2015 17:20 3,6 C 2,2 C 92 % 999,8 hPa 0,0 l/m 0 min 0 min 19 W/m 8,4 km/h (2 Bft)
21.02.2015 17:22 3,6 C 2,2 C 92 % 999,8 hPa 0,0 l/m 0 min 0 min 20 W/m 6,3 km/h (2 Bft)
21.02.2015 17:24 3,6 C 1,7 C 92 % 999,9 hPa 0,0 l/m 0 min 0 min 22 W/m 8,4 km/h (2 Bft)
21.02.2015 17:26 3,6 C 1,7 C 92 % 999,8 hPa 0,0 l/m 0 min 0 min 22 W/m 6,3 km/h (2 Bft)
21.02.2015 17:28 3,5 C 1,7 C 92 % 999,9 hPa 0,0 l/m 0 min 0 min 22 W/m 8,4 km/h (2 Bft)
21.02.2015 17:30 3,5 C 1,7 C 92 % 1000,0 hPa 0,0 l/m 0 min 0 min 23 W/m 10,5 km/h (2 Bft)
21.02.2015 17:32 3,5 C 1,7 C 92 % 1000,0 hPa 0,0 l/m 0 min 0 min 22 W/m 8,4 km/h (2 Bft)
21.02.2015 17:34 3,5 C 2,2 C 92 % 1000,0 hPa 0,0 l/m 0 min 0 min 20 W/m 6,3 km/h (2 Bft)
21.02.2015 17:36 3,5 C 2,2 C 92 % 999,9 hPa 0,0 l/m 0 min 0 min 19 W/m 10,5 km/h (2 Bft)
21.02.2015 17:38 3,4 C 2,2 C 92 % 1000,0 hPa 0,0 l/m 0 min 0 min 15 W/m 6,3 km/h (2 Bft)
21.02.2015 17:40 3,5 C 1,7 C 92 % 999,9 hPa 0,0 l/m 0 min 0 min 13 W/m 10,5 km/h (2 Bft)
21.02.2015 17:42 3,4 C 1,7 C 92 % 999,9 hPa 0,0 l/m 0 min 0 min 11 W/m 8,4 km/h (2 Bft)
21.02.2015 17:44 3,4 C 1,7 C 92 % 1000,0 hPa 0,0 l/m 0 min 0 min 11 W/m 8,4 km/h (2 Bft)
21.02.2015 17:46 3,4 C 1,7 C 92 % 1000,0 hPa 0,0 l/m 0 min 0 min 9 W/m 8,4 km/h (2 Bft)
21.02.2015 17:48 3,4 C 1,7 C 92 % 1000,0 hPa 0,0 l/m 0 min 0 min 9 W/m 12,6 km/h (3 Bft)
21.02.2015 17:50 3,4 C 1,7 C 92 % 1000,0 hPa 0,0 l/m 0 min 0 min 9 W/m 8,4 km/h (2 Bft)
21.02.2015 17:52 3,4 C 1,7 C 92 % 1000,0 hPa 0,0 l/m 0 min 0 min 8 W/m 10,5 km/h (2 Bft)
21.02.2015 17:54 3,4 C 1,7 C 92 % 1000,1 hPa 0,0 l/m 0 min 0 min 7 W/m 10,5 km/h (2 Bft)
21.02.2015 17:56 3,4 C 1,7 C 93 % 1000,1 hPa 0,0 l/m 0 min 0 min 7 W/m 10,5 km/h (2 Bft)
21.02.2015 17:58 3,4 C 1,7 C 93 % 1000,1 hPa 0,0 l/m 0 min 0 min 5 W/m 12,6 km/h (3 Bft)
21.02.2015 18:00 3,3 C 1,7 C 93 % 1000,1 hPa 0,0 l/m 0 min 0 min 5 W/m 12,6 km/h (3 Bft)
21.02.2015 18:02 3,3 C 1,7 C 93 % 1000,3 hPa 0,0 l/m 0 min 0 min 5 W/m 8,4 km/h (2 Bft)
21.02.2015 18:06 3,3 C 1,7 C 93 % 1000,3 hPa 0,0 l/m 0 min 0 min 1 W/m 12,6 km/h (3 Bft)
21.02.2015 18:08 3,3 C 1,7 C 92 % 1000,4 hPa 0,0 l/m 0 min 0 min 0 W/m 8,4 km/h (2 Bft)
21.02.2015 18:10 3,3 C 1,7 C 92 % 1000,4 hPa 0,0 l/m 0 min 0 min 0 W/m 12,6 km/h (3 Bft)
21.02.2015 18:12 3,2 C 1,7 C 92 % 1000,4 hPa 0,0 l/m 0 min 0 min 0 W/m 10,5 km/h (2 Bft)
21.02.2015 18:14 3,2 C 1,7 C 92 % 1000,5 hPa 0,0 l/m 0 min 0 min 0 W/m 10,5 km/h (2 Bft)
21.02.2015 18:16 3,2 C 1,7 C 93 % 1000,5 hPa 0,0 l/m 0 min 0 min 0 W/m 6,3 km/h (2 Bft)
21.02.2015 18:18 3,2 C 1,1 C 93 % 1000,5 hPa 0,0 l/m 0 min 0 min 0 W/m 8,4 km/h (2 Bft)
21.02.2015 18:20 3,2 C 1,1 C 93 % 1000,5 hPa 0,0 l/m 0 min 0 min 0 W/m 10,5 km/h (2 Bft)
21.02.2015 18:22 3,2 C 1,1 C 93 % 1000,5 hPa 0,0 l/m 0 min 0 min 0 W/m 8,4 km/h (2 Bft)
21.02.2015 18:24 3,2 C 1,1 C 93 % 1000,5 hPa 0,0 l/m 0 min 0 min 0 W/m 10,5 km/h (2 Bft)
21.02.2015 18:26 3,1 C 1,7 C 93 % 1000,5 hPa 0,0 l/m 0 min 0 min 0 W/m 10,5 km/h (2 Bft)
21.02.2015 18:28 3,1 C 1,7 C 93 % 1000,5 hPa 0,0 l/m 0 min 0 min 0 W/m 12,6 km/h (3 Bft)
21.02.2015 18:30 3,1 C 1,7 C 93 % 1000,7 hPa 0,0 l/m 0 min 0 min 0 W/m 12,6 km/h (3 Bft)
21.02.2015 18:32 3,1 C 1,7 C 93 % 1000,6 hPa 0,0 l/m 0 min 0 min 0 W/m 12,6 km/h (3 Bft)
21.02.2015 18:34 3,1 C 1,7 C 93 % 1000,6 hPa 0,0 l/m 0 min 0 min 0 W/m 8,4 km/h (2 Bft)
21.02.2015 18:36 3,1 C 1,7 C 93 % 1000,7 hPa 0,0 l/m 0 min 0 min 0 W/m 8,4 km/h (2 Bft)
21.02.2015 18:38 3,1 C 1,7 C 93 % 1000,7 hPa 0,0 l/m 0 min 0 min 0 W/m 6,3 km/h (2 Bft)
21.02.2015 18:40 3,0 C 1,7 C 93 % 1000,7 hPa 0,0 l/m 0 min 0 min 0 W/m 8,4 km/h (2 Bft)
21.02.2015 18:42 3,0 C 1,7 C 93 % 1000,7 hPa 0,0 l/m 0 min 0 min 0 W/m 10,5 km/h (2 Bft)
21.02.2015 18:44 3,0 C 1,7 C 93 % 1000,7 hPa 0,0 l/m 0 min 0 min 0 W/m 10,5 km/h (2 Bft)
21.02.2015 18:46 3,0 C 1,7 C 93 % 1000,8 hPa 0,0 l/m 0 min 0 min 0 W/m 10,5 km/h (2 Bft)
21.02.2015 18:48 3,0 C 1,7 C 93 % 1000,9 hPa 0,0 l/m 0 min 0 min 0 W/m 6,3 km/h (2 Bft)
21.02.2015 18:50 3,0 C 1,7 C 93 % 1000,8 hPa 0,0 l/m 0 min 0 min 0 W/m 8,4 km/h (2 Bft)
21.02.2015 18:52 3,0 C 1,7 C 93 % 1000,8 hPa 0,0 l/m 0 min 0 min 0 W/m 6,3 km/h (2 Bft)
21.02.2015 18:54 3,0 C 1,7 C 93 % 1000,9 hPa 0,0 l/m 0 min 0 min 0 W/m 10,5 km/h (2 Bft)
21.02.2015 18:56 3,0 C 1,7 C 93 % 1000,9 hPa 0,0 l/m 0 min 0 min 0 W/m 6,3 km/h (2 Bft)
21.02.2015 18:58 2,9 C 1,7 C 93 % 1000,8 hPa 0,0 l/m 0 min 0 min 0 W/m 6,3 km/h (2 Bft)
21.02.2015 19:00 2,9 C 1,7 C 93 % 1000,9 hPa 0,0 l/m 0 min 0 min 0 W/m 6,3 km/h (2 Bft)
21.02.2015 19:02 2,9 C 1,7 C 93 % 1000,9 hPa 0,0 l/m 0 min 0 min 0 W/m 6,3 km/h (2 Bft)
21.02.2015 19:04 2,9 C 1,7 C 93 % 1000,9 hPa 0,0 l/m 0 min 0 min 0 W/m 10,5 km/h (2 Bft)
21.02.2015 19:06 2,9 C 1,7 C 93 % 1000,9 hPa 0,0 l/m 0 min 0 min 0 W/m 10,5 km/h (2 Bft)
21.02.2015 19:08 2,9 C 1,7 C 93 % 1000,9 hPa 0,0 l/m 0 min 0 min 0 W/m 6,3 km/h (2 Bft)
21.02.2015 19:10 2,9 C 1,7 C 93 % 1000,9 hPa 0,0 l/m 0 min 0 min 0 W/m 8,4 km/h (2 Bft)
21.02.2015 19:12 2,9 C 1,7 C 93 % 1001,0 hPa 0,0 l/m 0 min 0 min 0 W/m 6,3 km/h (2 Bft)
21.02.2015 19:14 2,9 C 1,7 C 93 % 1001,0 hPa 0,0 l/m 0 min 0 min 0 W/m 6,3 km/h (2 Bft)
21.02.2015 19:16 2,9 C 1,7 C 93 % 1001,0 hPa 0,0 l/m 0 min 0 min 0 W/m 8,4 km/h (2 Bft)
21.02.2015 19:18 2,9 C 1,7 C 93 % 1001,0 hPa 0,0 l/m 0 min 0 min 0 W/m 8,4 km/h (2 Bft)
21.02.2015 19:20 2,9 C 1,7 C 93 % 1001,1 hPa 0,0 l/m 0 min 0 min 0 W/m 6,3 km/h (2 Bft)
21.02.2015 19:22 2,9 C 1,7 C 93 % 1001,0 hPa 0,0 l/m 0 min 0 min 0 W/m 6,3 km/h (2 Bft)
21.02.2015 19:24 2,9 C 1,7 C 93 % 1001,1 hPa 0,0 l/m 0 min 0 min 0 W/m 4,2 km/h (1 Bft)
21.02.2015 19:26 2,9 C 1,7 C 93 % 1001,1 hPa 0,0 l/m 0 min 0 min 0 W/m 6,3 km/h (2 Bft)
21.02.2015 19:28 2,9 C 1,7 C 93 % 1001,1 hPa 0,0 l/m 0 min 0 min 0 W/m 6,3 km/h (2 Bft)
21.02.2015 19:30 2,9 C 1,7 C 93 % 1001,2 hPa 0,0 l/m 0 min 0 min 0 W/m 6,3 km/h (2 Bft)
21.02.2015 19:32 2,9 C 1,7 C 93 % 1001,2 hPa 0,0 l/m 0 min 0 min 0 W/m 6,3 km/h (2 Bft)
21.02.2015 19:34 2,9 C 1,7 C 93 % 1001,2 hPa 0,0 l/m 0 min 0 min 0 W/m 6,3 km/h (2 Bft)
21.02.2015 19:36 2,9 C 1,7 C 93 % 1001,3 hPa 0,0 l/m 0 min 0 min 0 W/m 6,3 km/h (2 Bft)
21.02.2015 19:38 2,9 C 1,7 C 93 % 1001,3 hPa 0,0 l/m 0 min 0 min 0 W/m 6,3 km/h (2 Bft)
21.02.2015 19:40 2,9 C 1,7 C 94 % 1001,3 hPa 0,0 l/m 0 min 0 min 0 W/m 6,3 km/h (2 Bft)
21.02.2015 19:42 2,9 C 1,7 C 94 % 1001,3 hPa 0,0 l/m 0 min 0 min 0 W/m 6,3 km/h (2 Bft)
21.02.2015 19:44 2,9 C 1,7 C 94 % 1001,4 hPa 0,0 l/m 0 min 0 min 0 W/m 6,3 km/h (2 Bft)
21.02.2015 19:46 2,9 C 1,7 C 94 % 1001,4 hPa 0,0 l/m 0 min 0 min 0 W/m 4,2 km/h (1 Bft)
21.02.2015 19:48 2,9 C 1,7 C 94 % 1001,4 hPa 0,0 l/m 0 min 0 min 0 W/m 8,4 km/h (2 Bft)
21.02.2015 19:50 2,9 C 1,7 C 94 % 1001,4 hPa 0,0 l/m 0 min 0 min 0 W/m 6,3 km/h (2 Bft)
21.02.2015 19:52 2,9 C 1,7 C 94 % 1001,5 hPa 0,0 l/m 0 min 0 min 0 W/m 6,3 km/h (2 Bft)
21.02.2015 19:54 2,9 C 1,7 C 94 % 1001,6 hPa 0,0 l/m 0 min 0 min 0 W/m 6,3 km/h (2 Bft)
21.02.2015 19:56 2,9 C 1,7 C 93 % 1001,5 hPa 0,0 l/m 0 min 0 min 0 W/m 8,4 km/h (2 Bft)
21.02.2015 19:58 2,9 C 1,7 C 93 % 1001,6 hPa 0,0 l/m 0 min 0 min 0 W/m 6,3 km/h (2 Bft)
21.02.2015 20:00 2,9 C 1,7 C 94 % 1001,6 hPa 0,0 l/m 0 min 0 min 0 W/m 6,3 km/h (2 Bft)
21.02.2015 20:02 2,9 C 1,7 C 94 % 1001,6 hPa 0,0 l/m 0 min 0 min 0 W/m 10,5 km/h (2 Bft)
21.02.2015 20:04 2,9 C 1,7 C 94 % 1001,6 hPa 0,0 l/m 0 min 0 min 0 W/m 8,4 km/h (2 Bft)
21.02.2015 20:06 2,9 C 1,7 C 94 % 1001,8 hPa 0,0 l/m 0 min 0 min 0 W/m 10,5 km/h (2 Bft)
21.02.2015 20:08 2,9 C 1,7 C 94 % 1001,7 hPa 0,0 l/m 0 min 0 min 0 W/m 8,4 km/h (2 Bft)
21.02.2015 20:10 3,0 C 1,7 C 94 % 1001,8 hPa 0,0 l/m 0 min 0 min 0 W/m 10,5 km/h (2 Bft)
21.02.2015 20:12 2,9 C 1,7 C 94 % 1001,8 hPa 0,0 l/m 0 min 0 min 0 W/m 8,4 km/h (2 Bft)
21.02.2015 20:14 3,0 C 1,7 C 94 % 1001,8 hPa 0,0 l/m 0 min 0 min 0 W/m 14,6 km/h (3 Bft)
21.02.2015 20:16 3,0 C 1,7 C 94 % 1001,8 hPa 0,0 l/m 0 min 0 min 0 W/m 14,6 km/h (3 Bft)
21.02.2015 20:18 3,0 C 1,7 C 94 % 1001,8 hPa 0,0 l/m 0 min 0 min 0 W/m 14,6 km/h (3 Bft)
21.02.2015 20:20 3,0 C 1,7 C 94 % 1001,7 hPa 0,0 l/m 0 min 0 min 0 W/m 16,7 km/h (3 Bft)
21.02.2015 20:22 3,0 C 1,7 C 94 % 1001,7 hPa 0,0 l/m 0 min 0 min 0 W/m 14,6 km/h (3 Bft)
21.02.2015 20:24 3,0 C 1,7 C 94 % 1001,8 hPa 0,0 l/m 0 min 0 min 0 W/m 16,7 km/h (3 Bft)
21.02.2015 20:26 3,0 C 1,7 C 94 % 1001,9 hPa 0,0 l/m 0 min 0 min 0 W/m 14,6 km/h (3 Bft)
21.02.2015 20:28 3,0 C 1,7 C 94 % 1001,8 hPa 0,0 l/m 0 min 0 min 0 W/m 10,5 km/h (2 Bft)
21.02.2015 20:30 3,0 C 1,7 C 94 % 1001,9 hPa 0,0 l/m 0 min 0 min 0 W/m 12,6 km/h (3 Bft)
21.02.2015 20:32 3,0 C 1,7 C 94 % 1001,9 hPa 0,0 l/m 0 min 0 min 0 W/m 6,3 km/h (2 Bft)
21.02.2015 20:34 2,9 C 1,7 C 94 % 1001,9 hPa 0,0 l/m 0 min 0 min 0 W/m 10,5 km/h (2 Bft)
21.02.2015 20:36 2,9 C 1,7 C 94 % 1001,9 hPa 0,0 l/m 0 min 0 min 0 W/m 10,5 km/h (2 Bft)
21.02.2015 20:38 3,0 C 1,7 C 94 % 1001,9 hPa 0,0 l/m 0 min 0 min 0 W/m 10,5 km/h (2 Bft)
21.02.2015 20:40 2,9 C 1,7 C 94 % 1001,9 hPa 0,0 l/m 0 min 0 min 0 W/m 6,3 km/h (2 Bft)
21.02.2015 20:42 2,9 C 1,7 C 94 % 1001,9 hPa 0,0 l/m 0 min 0 min 0 W/m 8,4 km/h (2 Bft)
21.02.2015 20:44 2,9 C 1,7 C 94 % 1001,9 hPa 0,0 l/m 0 min 0 min 0 W/m 6,3 km/h (2 Bft)
21.02.2015 20:46 2,9 C 1,7 C 94 % 1002,0 hPa 0,0 l/m 0 min 0 min 0 W/m 8,4 km/h (2 Bft)
21.02.2015 20:48 2,9 C 1,7 C 94 % 1002,0 hPa 0,0 l/m 0 min 0 min 0 W/m 8,4 km/h (2 Bft)
21.02.2015 20:50 2,9 C 1,7 C 94 % 1002,0 hPa 0,0 l/m 0 min 0 min 0 W/m 6,3 km/h (2 Bft)
21.02.2015 20:52 2,9 C 1,7 C 94 % 1001,9 hPa 0,0 l/m 0 min 0 min 0 W/m 4,2 km/h (1 Bft)
21.02.2015 20:54 2,9 C 1,7 C 94 % 1002,0 hPa 0,0 l/m 0 min 0 min 0 W/m 4,2 km/h (1 Bft)
21.02.2015 20:56 2,9 C 1,7 C 94 % 1001,9 hPa 0,0 l/m 0 min 0 min 0 W/m 6,3 km/h (2 Bft)
21.02.2015 20:58 2,9 C 1,7 C 94 % 1002,0 hPa 0,0 l/m 0 min 0 min 0 W/m 8,4 km/h (2 Bft)
21.02.2015 21:00 2,9 C 1,7 C 94 % 1002,0 hPa 0,0 l/m 0 min 0 min 0 W/m 10,5 km/h (2 Bft)
21.02.2015 21:02 2,9 C 1,7 C 94 % 1002,0 hPa 0,0 l/m 0 min 0 min 0 W/m 8,4 km/h (2 Bft)
21.02.2015 21:04 2,9 C 1,7 C 94 % 1002,1 hPa 0,0 l/m 0 min 0 min 0 W/m 6,3 km/h (2 Bft)
21.02.2015 21:06 2,9 C 1,7 C 94 % 1002,1 hPa 0,0 l/m 0 min 0 min 0 W/m 6,3 km/h (2 Bft)
21.02.2015 21:08 2,9 C 1,7 C 94 % 1002,1 hPa 0,0 l/m 0 min 0 min 0 W/m 10,5 km/h (2 Bft)
21.02.2015 21:10 2,9 C 1,7 C 94 % 1002,1 hPa 0,0 l/m 0 min 0 min 0 W/m 6,3 km/h (2 Bft)
21.02.2015 21:12 2,9 C 1,7 C 94 % 1002,1 hPa 0,0 l/m 0 min 0 min 0 W/m 8,4 km/h (2 Bft)
21.02.2015 21:14 2,9 C 1,7 C 94 % 1002,2 hPa 0,0 l/m 0 min 0 min 0 W/m 6,3 km/h (2 Bft)
21.02.2015 21:16 2,9 C 1,7 C 94 % 1002,2 hPa 0,0 l/m 0 min 0 min 0 W/m 10,5 km/h (2 Bft)
21.02.2015 21:18 2,9 C 1,7 C 94 % 1002,2 hPa 0,0 l/m 0 min 0 min 0 W/m 6,3 km/h (2 Bft)
21.02.2015 21:20 2,8 C 1,7 C 94 % 1002,2 hPa 0,0 l/m 0 min 0 min 0 W/m 8,4 km/h (2 Bft)
21.02.2015 21:22 2,9 C 1,7 C 94 % 1002,3 hPa 0,0 l/m 0 min 0 min 0 W/m 6,3 km/h (2 Bft)
21.02.2015 21:24 2,8 C 1,7 C 94 % 1002,3 hPa 0,0 l/m 0 min 0 min 0 W/m 6,3 km/h (2 Bft)
21.02.2015 21:26 2,8 C 1,7 C 94 % 1002,3 hPa 0,0 l/m 0 min 0 min 0 W/m 6,3 km/h (2 Bft)
21.02.2015 21:28 2,8 C 1,7 C 94 % 1002,4 hPa 0,0 l/m 0 min 0 min 0 W/m 6,3 km/h (2 Bft)
21.02.2015 21:30 2,8 C 1,7 C 94 % 1002,5 hPa 0,0 l/m 0 min 0 min 0 W/m 8,4 km/h (2 Bft)
21.02.2015 21:32 2,8 C 1,7 C 94 % 1002,5 hPa 0,0 l/m 0 min 0 min 0 W/m 6,3 km/h (2 Bft)
21.02.2015 21:34 2,8 C 1,7 C 94 % 1002,5 hPa 0,0 l/m 0 min 0 min 0 W/m 8,4 km/h (2 Bft)
21.02.2015 21:36 2,8 C 1,7 C 94 % 1002,5 hPa 0,0 l/m 0 min 0 min 0 W/m 8,4 km/h (2 Bft)
21.02.2015 21:38 2,8 C 1,7 C 94 % 1002,6 hPa 0,0 l/m 0 min 0 min 0 W/m 6,3 km/h (2 Bft)
21.02.2015 21:40 2,8 C 1,7 C 94 % 1002,5 hPa 0,0 l/m 0 min 0 min 0 W/m 8,4 km/h (2 Bft)
21.02.2015 21:42 2,8 C 1,7 C 94 % 1002,5 hPa 0,0 l/m 0 min 0 min 0 W/m 12,6 km/h (3 Bft)
21.02.2015 21:44 2,8 C 1,7 C 94 % 1002,6 hPa 0,0 l/m 0 min 0 min 0 W/m 8,4 km/h (2 Bft)
21.02.2015 21:46 2,8 C 1,7 C 94 % 1002,6 hPa 0,0 l/m 0 min 0 min 0 W/m 8,4 km/h (2 Bft)
21.02.2015 21:48 2,8 C 1,7 C 94 % 1002,6 hPa 0,0 l/m 0 min 0 min 0 W/m 8,4 km/h (2 Bft)
21.02.2015 21:50 2,8 C 1,7 C 94 % 1002,6 hPa 0,0 l/m 0 min 0 min 0 W/m 12,6 km/h (3 Bft)
21.02.2015 21:52 2,8 C 1,7 C 94 % 1002,7 hPa 0,0 l/m 0 min 0 min 0 W/m 10,5 km/h (2 Bft)
21.02.2015 21:54 2,8 C 1,7 C 94 % 1002,8 hPa 0,0 l/m 0 min 0 min 0 W/m 10,5 km/h (2 Bft)
21.02.2015 21:56 2,8 C 1,7 C 94 % 1002,8 hPa 0,0 l/m 0 min 0 min 0 W/m 10,5 km/h (2 Bft)
21.02.2015 21:58 2,8 C 1,7 C 94 % 1002,8 hPa 0,0 l/m 0 min 0 min 0 W/m 8,4 km/h (2 Bft)
21.02.2015 22:00 2,8 C 1,7 C 94 % 1002,8 hPa 0,0 l/m 0 min 0 min 0 W/m 10,5 km/h (2 Bft)
21.02.2015 22:02 2,8 C 1,7 C 94 % 1002,8 hPa 0,0 l/m 0 min 0 min 0 W/m 8,4 km/h (2 Bft)
21.02.2015 22:04 2,8 C 1,7 C 94 % 1002,8 hPa 0,0 l/m 0 min 0 min 0 W/m 8,4 km/h (2 Bft)
21.02.2015 22:06 2,8 C 1,7 C 94 % 1002,8 hPa 0,0 l/m 0 min 0 min 0 W/m 12,6 km/h (3 Bft)
21.02.2015 22:08 2,8 C 1,7 C 94 % 1002,8 hPa 0,0 l/m 0 min 0 min 0 W/m 10,5 km/h (2 Bft)
21.02.2015 22:10 2,8 C 1,7 C 94 % 1002,9 hPa 0,0 l/m 0 min 0 min 0 W/m 10,5 km/h (2 Bft)
21.02.2015 22:12 2,8 C 1,7 C 94 % 1002,9 hPa 0,0 l/m 0 min 0 min 0 W/m 8,4 km/h (2 Bft)
21.02.2015 22:14 2,8 C 1,7 C 94 % 1002,9 hPa 0,0 l/m 0 min 0 min 0 W/m 8,4 km/h (2 Bft)
21.02.2015 22:16 2,8 C 1,7 C 94 % 1002,9 hPa 0,0 l/m 0 min 0 min 0 W/m 10,5 km/h (2 Bft)
21.02.2015 22:18 2,8 C 1,7 C 94 % 1002,9 hPa 0,0 l/m 0 min 0 min 0 W/m 8,4 km/h (2 Bft)
21.02.2015 22:20 2,8 C 1,7 C 94 % 1002,9 hPa 0,0 l/m 0 min 0 min 0 W/m 10,5 km/h (2 Bft)
21.02.2015 22:22 2,8 C 1,7 C 94 % 1002,9 hPa 0,0 l/m 0 min 0 min 0 W/m 10,5 km/h (2 Bft)
21.02.2015 22:24 2,8 C 1,7 C 94 % 1002,9 hPa 0,0 l/m 0 min 0 min 0 W/m 10,5 km/h (2 Bft)
21.02.2015 22:26 2,8 C 1,7 C 94 % 1002,9 hPa 0,0 l/m 0 min 0 min 0 W/m 12,6 km/h (3 Bft)
21.02.2015 22:28 2,8 C 1,7 C 94 % 1002,9 hPa 0,0 l/m 0 min 0 min 0 W/m 10,5 km/h (2 Bft)
21.02.2015 22:30 2,7 C 1,7 C 94 % 1003,0 hPa 0,0 l/m 0 min 0 min 0 W/m 10,5 km/h (2 Bft)
21.02.2015 22:32 2,7 C 1,7 C 94 % 1002,9 hPa 0,0 l/m 0 min 0 min 0 W/m 12,6 km/h (3 Bft)
21.02.2015 22:34 2,7 C 1,7 C 94 % 1002,9 hPa 0,0 l/m 0 min 0 min 0 W/m 12,6 km/h (3 Bft)
21.02.2015 22:36 2,7 C 1,7 C 94 % 1002,9 hPa 0,0 l/m 0 min 0 min 0 W/m 12,6 km/h (3 Bft)
21.02.2015 22:38 2,7 C 1,7 C 94 % 1003,0 hPa 0,0 l/m 0 min 0 min 0 W/m 10,5 km/h (2 Bft)
21.02.2015 22:40 2,7 C 1,7 C 94 % 1003,0 hPa 0,0 l/m 0 min 0 min 0 W/m 8,4 km/h (2 Bft)
21.02.2015 22:42 2,7 C 1,7 C 94 % 1003,0 hPa 0,0 l/m 0 min 0 min 0 W/m 10,5 km/h (2 Bft)
21.02.2015 22:44 2,7 C 1,7 C 94 % 1003,0 hPa 0,0 l/m 0 min 0 min 0 W/m 12,6 km/h (3 Bft)
21.02.2015 22:46 2,7 C 1,7 C 94 % 1003,0 hPa 0,0 l/m 0 min 0 min 0 W/m 12,6 km/h (3 Bft)
21.02.2015 22:48 2,7 C 1,7 C 94 % 1003,0 hPa 0,0 l/m 0 min 0 min 0 W/m 10,5 km/h (2 Bft)
21.02.2015 22:50 2,7 C 1,7 C 94 % 1003,0 hPa 0,0 l/m 0 min 0 min 0 W/m 10,5 km/h (2 Bft)
21.02.2015 22:52 2,7 C 1,7 C 94 % 1003,1 hPa 0,0 l/m 0 min 0 min 0 W/m 10,5 km/h (2 Bft)
21.02.2015 22:54 2,7 C 1,7 C 94 % 1003,1 hPa 0,0 l/m 0 min 0 min 0 W/m 10,5 km/h (2 Bft)
21.02.2015 22:56 2,7 C 1,7 C 94 % 1003,1 hPa 0,0 l/m 0 min 0 min 0 W/m 10,5 km/h (2 Bft)
21.02.2015 22:58 2,7 C 1,7 C 94 % 1003,1 hPa 0,0 l/m 0 min 0 min 0 W/m 10,5 km/h (2 Bft)
21.02.2015 23:00 2,7 C 1,7 C 95 % 1003,2 hPa 0,0 l/m 0 min 0 min 0 W/m 10,5 km/h (2 Bft)
21.02.2015 23:02 2,7 C 1,7 C 94 % 1003,2 hPa 0,0 l/m 0 min 0 min 0 W/m 12,6 km/h (3 Bft)
21.02.2015 23:04 2,7 C 1,7 C 94 % 1003,3 hPa 0,0 l/m 0 min 0 min 0 W/m 10,5 km/h (2 Bft)
21.02.2015 23:06 2,7 C 1,7 C 95 % 1003,3 hPa 0,0 l/m 0 min 0 min 0 W/m 10,5 km/h (2 Bft)
21.02.2015 23:08 2,7 C 1,7 C 95 % 1003,4 hPa 0,0 l/m 0 min 0 min 0 W/m 8,4 km/h (2 Bft)
21.02.2015 23:10 2,7 C 1,7 C 95 % 1003,5 hPa 0,0 l/m 0 min 0 min 0 W/m 12,6 km/h (3 Bft)
21.02.2015 23:12 2,7 C 1,1 C 95 % 1003,4 hPa 0,0 l/m 0 min 0 min 0 W/m 10,5 km/h (2 Bft)
21.02.2015 23:14 2,7 C 1,1 C 95 % 1003,4 hPa 0,0 l/m 0 min 0 min 0 W/m 8,4 km/h (2 Bft)
21.02.2015 23:16 2,7 C 1,1 C 95 % 1003,4 hPa 0,0 l/m 0 min 0 min 0 W/m 12,6 km/h (3 Bft)
21.02.2015 23:18 2,7 C 1,1 C 95 % 1003,4 hPa 0,0 l/m 0 min 0 min 0 W/m 10,5 km/h (2 Bft)
21.02.2015 23:20 2,7 C 1,1 C 95 % 1003,5 hPa 0,0 l/m 0 min 0 min 0 W/m 10,5 km/h (2 Bft)
21.02.2015 23:22 2,6 C 1,1 C 95 % 1003,5 hPa 0,0 l/m 0 min 0 min 0 W/m 10,5 km/h (2 Bft)
21.02.2015 23:24 2,7 C 1,1 C 95 % 1003,6 hPa 0,0 l/m 0 min 0 min 0 W/m 10,5 km/h (2 Bft)
21.02.2015 23:26 2,6 C 1,1 C 95 % 1003,5 hPa 0,0 l/m 0 min 0 min 0 W/m 8,4 km/h (2 Bft)
21.02.2015 23:28 2,6 C 1,1 C 95 % 1003,5 hPa 0,0 l/m 0 min 0 min 0 W/m 6,3 km/h (2 Bft)
21.02.2015 23:30 2,6 C 1,1 C 95 % 1003,5 hPa 0,0 l/m 0 min 0 min 0 W/m 8,4 km/h (2 Bft)
21.02.2015 23:32 2,6 C 1,1 C 95 % 1003,5 hPa 0,0 l/m 0 min 0 min 0 W/m 8,4 km/h (2 Bft)
21.02.2015 23:34 2,6 C 1,1 C 95 % 1003,6 hPa 0,0 l/m 0 min 0 min 0 W/m 6,3 km/h (2 Bft)
21.02.2015 23:36 2,6 C 1,1 C 95 % 1003,6 hPa 0,0 l/m 0 min 0 min 0 W/m 8,4 km/h (2 Bft)
21.02.2015 23:38 2,6 C 1,1 C 95 % 1003,6 hPa 0,0 l/m 0 min 0 min 0 W/m 8,4 km/h (2 Bft)
21.02.2015 23:40 2,6 C 1,1 C 95 % 1003,6 hPa 0,0 l/m 0 min 0 min 0 W/m 10,5 km/h (2 Bft)
21.02.2015 23:42 2,6 C 1,1 C 95 % 1003,6 hPa 0,0 l/m 0 min 0 min 0 W/m 10,5 km/h (2 Bft)
21.02.2015 23:44 2,6 C 1,1 C 95 % 1003,6 hPa 0,0 l/m 0 min 0 min 0 W/m 12,6 km/h (3 Bft)
21.02.2015 23:46 2,6 C 1,1 C 95 % 1003,6 hPa 0,0 l/m 0 min 0 min 0 W/m 12,6 km/h (3 Bft)
21.02.2015 23:48 2,5 C 1,1 C 95 % 1003,6 hPa 0,0 l/m 0 min 0 min 0 W/m 14,6 km/h (3 Bft)
21.02.2015 23:50 2,5 C 1,1 C 95 % 1003,6 hPa 0,0 l/m 0 min 0 min 0 W/m 12,6 km/h (3 Bft)
21.02.2015 23:52 2,5 C 1,1 C 95 % 1003,6 hPa 0,0 l/m 0 min 0 min 0 W/m 12,6 km/h (3 Bft)
21.02.2015 23:54 2,5 C 1,1 C 95 % 1003,7 hPa 0,0 l/m 0 min 0 min 0 W/m 10,5 km/h (2 Bft)
21.02.2015 23:56 2,4 C 1,1 C 95 % 1003,7 hPa 0,0 l/m 0 min 0 min 0 W/m 8,4 km/h (2 Bft)
21.02.2015 23:58 2,5 C 1,1 C 95 % 1003,7 hPa 0,0 l/m 0 min 0 min 0 W/m 10,5 km/h (2 Bft)
_ Min-Zeit 07:34 07:02 12:54 04:06 - - - - 13:40
Minimum _ 2,4 C 1,1 C 82 % 993,5 hPa - - - - 4,2 km/h (1 Bft)
_ Max-Zeit 12:46 12:40 08:18 23:54 13:08 09:28 00:00 12:42 05:10
Maximum _ 6,6 C 6,7 C 96 % 1003,7 hPa 0,4 l/m 2 min 2 min 596 W/m 48,1 km/h
W-SW (6 Bft)
Durchschnitt _ 4,1 C 2,7 C 93 % 998,3 hPa #4,2 l/m #1:38 h #5:52 h 116 W/m 16,8 km/h (3 Bft)
© 2015 W. Hausmann